| time (UTC) | temp F | wind direction | speed knots | gust knots | rain 1hr in | rain 24hr in | rain mn in | humidity % | barometer mb |
| 20260507191905 | 62 | 235 | 8.7 | 15.6 | 0.00 | 0.81 | 0.81 | 57 | 1001.3 |
| 20260507191703 | 63 | 242 | 10.4 | 15.6 | 0.00 | 0.81 | 0.81 | 57 | 1001.2 |
| 20260507191616 | 63 | 250 | 7.0 | 17.4 | 0.00 | 0.81 | 0.81 | 57 | 1001.0 |
| 20260507191605 | 63 | 253 | 7.0 | 17.4 | 0.00 | 0.81 | 0.81 | 57 | 1001.0 |
| 20260507191505 | 63 | 252 | 5.2 | 17.4 | 0.00 | 0.81 | 0.81 | 57 | 1000.9 |
| 20260507191303 | 63 | 239 | 7.0 | 19.1 | 0.00 | 0.81 | 0.81 | 57 | 1001.0 |
| 20260507191215 | 63 | 232 | 6.1 | 19.1 | 0.00 | 0.81 | 0.81 | 57 | 1000.8 |
| 20260507191205 | 63 | 230 | 6.1 | 19.1 | 0.00 | 0.81 | 0.81 | 57 | 1000.8 |
| 20260507191119 | 63 | 230 | 9.6 | 19.1 | 0.00 | 0.81 | 0.81 | 57 | 1000.5 |
| 20260507191104 | 63 | 229 | 9.6 | 19.1 | 0.00 | 0.81 | 0.81 | 57 | 1000.5 |
| 20260507190803 | 63 | 235 | 7.0 | 20.0 | 0.00 | 0.81 | 0.81 | 56 | 1000.6 |
| 20260507190704 | 63 | 238 | 7.0 | 20.0 | 0.00 | 0.81 | 0.81 | 56 | 1000.4 |
| 20260507190603 | 63 | 238 | 9.6 | 20.0 | 0.00 | 0.81 | 0.81 | 56 | 1000.4 |
| 20260507190505 | 63 | 242 | 8.7 | 20.0 | 0.00 | 0.81 | 0.81 | 56 | 1000.5 |
| 20260507190414 | 63 | 236 | 9.6 | 20.0 | 0.00 | 0.81 | 0.81 | 56 | 1000.4 |
| 20260507190404 | 63 | 232 | 9.6 | 20.0 | 0.00 | 0.81 | 0.81 | 56 | 1000.4 |
| 20260507190303 | 63 | 230 | 11.3 | 20.0 | 0.00 | 0.81 | 0.81 | 56 | 1000.7 |
| 20260507190105 | 63 | 230 | 7.0 | 20.0 | 0.00 | 0.81 | 0.81 | 57 | 1000.1 |
| 20260507190006 | 62 | 234 | 7.8 | 20.0 | 0.00 | 0.81 | 0.81 | 56 | 999.9 |
| 20260507185903 | 62 | 239 | 8.7 | 20.0 | 0.00 | 0.81 | 0.81 | 57 | 1000.1 |
| 20260507185805 | 62 | 239 | 8.7 | 20.0 | 0.00 | 0.81 | 0.81 | 56 | 999.9 |
| 20260507185714 | 62 | 238 | 9.6 | 18.2 | 0.00 | 0.81 | 0.81 | 57 | 1000.1 |
| 20260507185703 | 62 | 241 | 9.6 | 18.2 | 0.00 | 0.81 | 0.81 | 57 | 1000.1 |
| 20260507185605 | 62 | 245 | 8.7 | 18.2 | 0.00 | 0.81 | 0.81 | 56 | 1000.1 |
| 20260507185517 | 62 | 248 | 10.4 | 18.2 | 0.00 | 0.81 | 0.81 | 57 | 1000.3 |
| 20260507185405 | 63 | 240 | 5.2 | 15.6 | 0.00 | 0.81 | 0.81 | 57 | 1000.3 |
| 20260507185205 | 62 | 227 | 9.6 | 15.6 | 0.00 | 0.81 | 0.81 | 57 | 1000.0 |
| 20260507185103 | 62 | 230 | 9.6 | 15.6 | 0.00 | 0.81 | 0.81 | 57 | 1000.1 |
| 20260507185004 | 63 | 211 | 7.8 | 13.9 | 0.00 | 0.81 | 0.81 | 56 | 1000.2 |
| 20260507184804 | 63 | 236 | 8.7 | 15.6 | 0.00 | 0.81 | 0.81 | 56 | 1000.1 |
| 20260507184704 | 63 | 238 | 8.7 | 15.6 | 0.00 | 0.81 | 0.81 | 56 | 1000.2 |
| 20260507184603 | 63 | 227 | 7.8 | 15.6 | 0.00 | 0.81 | 0.81 | 56 | 1000.4 |
| 20260507184517 | 63 | 244 | 7.0 | 15.6 | 0.00 | 0.81 | 0.81 | 57 | 1000.2 |
| 20260507184421 | 63 | 243 | 8.7 | 15.6 | 0.00 | 0.81 | 0.81 | 56 | 1000.1 |
| 20260507184405 | 63 | 242 | 8.7 | 15.6 | 0.00 | 0.81 | 0.81 | 56 | 1000.1 |
| 20260507184218 | 63 | 239 | 7.0 | 15.6 | 0.00 | 0.81 | 0.81 | 57 | 1000.3 |
| 20260507184104 | 63 | 247 | 8.7 | 15.6 | 0.00 | 0.81 | 0.81 | 58 | 1000.2 |
| 20260507183904 | 63 | 239 | 6.1 | 14.8 | 0.00 | 0.81 | 0.81 | 57 | 1000.1 |
| 20260507183804 | 62 | 239 | 4.3 | 14.8 | 0.00 | 0.81 | 0.81 | 58 | 1000.1 |
| 20260507183704 | 62 | 231 | 9.6 | 14.8 | 0.00 | 0.81 | 0.81 | 58 | 1000.1 |
| 20260507183604 | 62 | 226 | 9.6 | 13.9 | 0.00 | 0.81 | 0.81 | 58 | 1000.1 |
| 20260507183504 | 62 | 223 | 7.8 | 13.9 | 0.00 | 0.81 | 0.81 | 58 | 999.7 |
| 20260507183403 | 62 | 235 | 8.7 | 18.2 | 0.00 | 0.81 | 0.81 | 58 | 1000.0 |
| 20260507183307 | 62 | 241 | 8.7 | 18.2 | 0.00 | 0.81 | 0.81 | 58 | 999.8 |
| 20260507183204 | 62 | 256 | 7.0 | 18.2 | 0.00 | 0.81 | 0.81 | 58 | 999.8 |
| 20260507183103 | 62 | 258 | 6.1 | 18.2 | 0.00 | 0.81 | 0.81 | 58 | 999.5 |
| 20260507183007 | 62 | 260 | 7.8 | 18.2 | 0.00 | 0.81 | 0.81 | 59 | 999.8 |
| 20260507182904 | 62 | 245 | 13.0 | 18.2 | 0.00 | 0.81 | 0.81 | 58 | 999.8 |
| 20260507182807 | 62 | 247 | 7.0 | 15.6 | 0.00 | 0.81 | 0.81 | 58 | 999.8 |
| 20260507182704 | 62 | 242 | 7.8 | 15.6 | 0.00 | 0.81 | 0.81 | 59 | 999.8 |
| 20260507182604 | 62 | 237 | 7.0 | 15.6 | 0.00 | 0.81 | 0.81 | 59 | 1000.0 |
| 20260507182404 | 62 | 234 | 8.7 | 14.8 | 0.00 | 0.81 | 0.81 | 58 | 1000.2 |
| 20260507182306 | 62 | 230 | 9.6 | 15.6 | 0.00 | 0.81 | 0.81 | 58 | 1000.1 |
| 20260507182203 | 62 | 223 | 3.5 | 18.2 | 0.00 | 0.81 | 0.81 | 60 | 1000.6 |
| 20260507182103 | 61 | 224 | 7.0 | 18.2 | 0.00 | 0.81 | 0.81 | 60 | 1000.4 |
| 20260507182006 | 61 | 221 | 7.8 | 18.2 | 0.00 | 0.81 | 0.81 | 60 | 1000.9 |
| 20260507181904 | 61 | 230 | 9.6 | 18.2 | 0.00 | 0.81 | 0.81 | 60 | 1000.9 |
| 20260507181804 | 61 | 233 | 7.0 | 18.2 | 0.00 | 0.81 | 0.81 | 60 | 1001.2 |
| 20260507181704 | 61 | 239 | 11.3 | 18.2 | 0.00 | 0.81 | 0.81 | 60 | 1001.3 |
| 20260507181617 | 61 | 236 | 3.5 | 13.9 | 0.00 | 0.81 | 0.81 | 61 | 1001.1 |
| 20260507181603 | 61 | 233 | 3.5 | 13.9 | 0.00 | 0.81 | 0.81 | 61 | 1001.1 |
| 20260507181505 | 61 | 226 | 5.2 | 13.9 | 0.00 | 0.81 | 0.81 | 62 | 1001.1 |
| 20260507181303 | 61 | 227 | 4.3 | 13.9 | 0.00 | 0.81 | 0.81 | 62 | 1000.8 |
| 20260507181204 | 61 | 231 | 8.7 | 13.9 | 0.00 | 0.81 | 0.81 | 61 | 1000.7 |
| 20260507181106 | 61 | 235 | 9.6 | 13.9 | 0.00 | 0.81 | 0.81 | 61 | 1000.8 |
| 20260507181005 | 60 | 243 | 7.8 | 13.0 | 0.00 | 0.81 | 0.81 | 62 | 1000.8 |
| 20260507180905 | 61 | 238 | 6.1 | 13.0 | 0.00 | 0.81 | 0.81 | 62 | 1001.0 |
| 20260507180804 | 61 | 232 | 7.8 | 12.2 | 0.00 | 0.81 | 0.81 | 63 | 1001.0 |
| 20260507180704 | 61 | 229 | 6.1 | 11.3 | 0.00 | 0.81 | 0.81 | 62 | 1000.9 |
| 20260507180603 | 61 | 229 | 4.3 | 11.3 | 0.00 | 0.81 | 0.81 | 63 | 1001.2 |
| 20260507180505 | 61 | 239 | 4.3 | 11.3 | 0.00 | 0.81 | 0.81 | 63 | 1001.2 |
| 20260507180403 | 61 | 242 | 6.1 | 11.3 | 0.00 | 0.81 | 0.81 | 62 | 1001.0 |
| 20260507180303 | 61 | 249 | 3.5 | 11.3 | 0.00 | 0.81 | 0.81 | 62 | 1001.1 |
| 20260507180217 | 61 | 245 | 6.1 | 11.3 | 0.00 | 0.81 | 0.81 | 62 | 1001.3 |
| 20260507180206 | 61 | 245 | 6.1 | 11.3 | 0.00 | 0.81 | 0.81 | 62 | 1001.1 |
| 20260507180103 | 61 | 241 | 3.5 | 9.6 | 0.00 | 0.81 | 0.81 | 63 | 1001.4 |
| 20260507175905 | 61 | 240 | 5.2 | 9.6 | 0.00 | 0.81 | 0.81 | 63 | 1001.2 |
| 20260507175804 | 61 | 240 | 3.5 | 9.6 | 0.00 | 0.81 | 0.81 | 64 | 1001.4 |
| 20260507175703 | 60 | 246 | 4.3 | 9.6 | 0.00 | 0.81 | 0.81 | 64 | 1001.2 |
| 20260507175605 | 60 | 249 | 7.0 | 9.6 | 0.00 | 0.81 | 0.81 | 64 | 1001.1 |
| 20260507175503 | 60 | 245 | 6.1 | 9.6 | 0.00 | 0.81 | 0.81 | 65 | 1001.1 |
| 20260507175404 | 60 | 244 | 4.3 | 9.6 | 0.00 | 0.81 | 0.81 | 65 | 1001.3 |
| 20260507175306 | 60 | 240 | 3.5 | 9.6 | 0.00 | 0.81 | 0.81 | 65 | 1000.9 |
| 20260507175204 | 60 | 244 | 3.5 | 11.3 | 0.00 | 0.81 | 0.81 | 65 | 1001.2 |
| 20260507175104 | 60 | 244 | 4.3 | 12.2 | 0.00 | 0.81 | 0.81 | 65 | 1001.1 |
| 20260507175004 | 60 | 240 | 3.5 | 13.0 | 0.00 | 0.81 | 0.81 | 65 | 1001.2 |
| 20260507174807 | 60 | 249 | 3.5 | 13.0 | 0.00 | 0.81 | 0.81 | 65 | 1001.3 |
| 20260507174705 | 59 | 246 | 6.1 | 13.0 | 0.00 | 0.81 | 0.81 | 65 | 1001.6 |
| 20260507174504 | 59 | 244 | 6.1 | 13.0 | 0.00 | 0.81 | 0.81 | 66 | 1001.7 |
| 20260507174416 | 59 | 240 | 6.1 | 9.6 | 0.00 | 0.81 | 0.81 | 66 | 1002.0 |
| 20260507174404 | 59 | 237 | 6.1 | 9.6 | 0.00 | 0.81 | 0.81 | 66 | 1002.0 |
| 20260507174306 | 59 | 240 | 3.5 | 9.6 | 0.00 | 0.81 | 0.81 | 66 | 1002.0 |
| 20260507174214 | 59 | 243 | 7.0 | 9.6 | 0.00 | 0.81 | 0.81 | 65 | 1002.0 |
| 20260507174103 | 59 | 244 | 3.5 | 9.6 | 0.00 | 0.81 | 0.81 | 67 | 1002.2 |
| 20260507174016 | 59 | 243 | 3.5 | 9.6 | 0.00 | 0.81 | 0.81 | 67 | 1002.2 |
| 20260507173904 | 59 | 246 | 6.1 | 9.6 | 0.00 | 0.81 | 0.81 | 66 | 1002.2 |
| 20260507173705 | 59 | 240 | 5.2 | 9.6 | 0.00 | 0.81 | 0.81 | 66 | 1002.3 |
| 20260507173603 | 59 | 244 | 3.5 | 9.6 | 0.00 | 0.81 | 0.81 | 66 | 1002.3 |
| 20260507173505 | 59 | 245 | 5.2 | 9.6 | 0.00 | 0.81 | 0.81 | 66 | 1002.3 |
| 20260507173405 | 59 | 236 | 6.1 | 9.6 | 0.00 | 0.81 | 0.81 | 66 | 1002.6 |
| 20260507173305 | 59 | 239 | 3.5 | 9.6 | 0.00 | 0.81 | 0.81 | 66 | 1002.3 |
| 20260507173204 | 59 | 235 | 3.5 | 9.6 | 0.00 | 0.81 | 0.81 | 66 | 1002.3 |
| 20260507173103 | 59 | 236 | 6.1 | 12.2 | 0.00 | 0.81 | 0.81 | 66 | 1002.2 |
| 20260507173004 | 59 | 232 | 6.1 | 13.0 | 0.00 | 0.81 | 0.81 | 66 | 1002.3 |
| 20260507172907 | 59 | 235 | 3.5 | 13.0 | 0.00 | 0.81 | 0.81 | 66 | 1002.5 |
| 20260507172814 | 59 | 233 | 4.3 | 13.0 | 0.00 | 0.81 | 0.81 | 66 | 1002.5 |
| 20260507172804 | 59 | 232 | 4.3 | 13.0 | 0.00 | 0.81 | 0.81 | 66 | 1002.5 |
| 20260507172704 | 59 | 234 | 6.1 | 13.0 | 0.00 | 0.81 | 0.81 | 65 | 1002.3 |
| 20260507172515 | 59 | 242 | 4.3 | 12.2 | 0.00 | 0.81 | 0.81 | 66 | 1002.6 |
| 20260507172504 | 59 | 240 | 4.3 | 12.2 | 0.00 | 0.81 | 0.81 | 66 | 1002.6 |
| 20260507172404 | 59 | 234 | 4.3 | 12.2 | 0.00 | 0.81 | 0.81 | 66 | 1002.7 |
| 20260507172216 | 59 | 233 | 7.0 | 13.0 | 0.00 | 0.81 | 0.81 | 65 | 1002.8 |
| 20260507172205 | 59 | 236 | 7.0 | 13.0 | 0.00 | 0.81 | 0.81 | 65 | 1002.7 |
| 20260507172104 | 59 | 235 | 7.0 | 13.0 | 0.00 | 0.81 | 0.81 | 66 | 1002.9 |
| 20260507171805 | 59 | 248 | 8.7 | 15.6 | 0.00 | 0.81 | 0.81 | 66 | 1002.9 |
| 20260507171703 | 59 | 244 | 7.0 | 15.6 | 0.00 | 0.81 | 0.81 | 66 | 1003.0 |
| 20260507171603 | 59 | 236 | 6.1 | 15.6 | 0.00 | 0.81 | 0.81 | 66 | 1003.1 |
| 20260507171505 | 59 | 239 | 7.0 | 15.6 | 0.00 | 0.81 | 0.81 | 66 | 1002.7 |
| 20260507171406 | 59 | 245 | 6.1 | 13.9 | 0.00 | 0.81 | 0.81 | 67 | 1002.9 |
| 20260507171304 | 59 | 248 | 5.2 | 13.9 | 0.00 | 0.81 | 0.81 | 66 | 1003.1 |
| 20260507171204 | 59 | 257 | 4.3 | 13.9 | 0.00 | 0.81 | 0.81 | 67 | 1003.1 |
| 20260507171104 | 59 | 260 | 4.3 | 13.9 | 0.00 | 0.81 | 0.81 | 67 | 1003.0 |
| 20260507171003 | 59 | 257 | 5.2 | 13.9 | 0.00 | 0.81 | 0.81 | 67 | 1003.0 |
| 20260507170905 | 59 | 259 | 7.0 | 13.9 | 0.00 | 0.81 | 0.81 | 67 | 1003.0 |
| 20260507170805 | 59 | 259 | 7.8 | 13.9 | 0.00 | 0.81 | 0.81 | 66 | 1003.0 |
| 20260507170703 | 59 | 254 | 4.3 | 12.2 | 0.00 | 0.81 | 0.81 | 67 | 1003.0 |
| 20260507170605 | 59 | 249 | 3.5 | 12.2 | 0.00 | 0.81 | 0.81 | 67 | 1002.9 |
| 20260507170504 | 59 | 243 | 5.2 | 12.2 | 0.00 | 0.81 | 0.81 | 67 | 1003.1 |
| 20260507170404 | 59 | 235 | 7.0 | 12.2 | 0.00 | 0.81 | 0.81 | 67 | 1003.1 |
| 20260507170303 | 59 | 230 | 5.2 | 12.2 | 0.00 | 0.81 | 0.81 | 67 | 1003.1 |
| 20260507170204 | 59 | 231 | 7.0 | 12.2 | 0.00 | 0.81 | 0.81 | 67 | 1003.2 |
| 20260507170106 | 59 | 230 | 5.2 | 11.3 | 0.00 | 0.81 | 0.81 | 67 | 1003.3 |
| 20260507170004 | 59 | 226 | 6.1 | 11.3 | 0.00 | 0.81 | 0.81 | 67 | 1003.3 |
| 20260507165904 | 59 | 234 | 7.0 | 11.3 | 0.00 | 0.81 | 0.81 | 67 | 1003.5 |
| 20260507165817 | 59 | 238 | 7.0 | 11.3 | 0.00 | 0.81 | 0.81 | 67 | 1003.6 |
| 20260507165804 | 59 | 241 | 4.3 | 11.3 | 0.00 | 0.81 | 0.81 | 67 | 1003.5 |
| 20260507165715 | 59 | 243 | 5.2 | 11.3 | 0.00 | 0.81 | 0.81 | 67 | 1003.8 |
| 20260507165704 | 59 | 242 | 5.2 | 11.3 | 0.00 | 0.81 | 0.81 | 67 | 1003.8 |
| 20260507165518 | 59 | 247 | 7.0 | 11.3 | 0.00 | 0.81 | 0.81 | 67 | 1003.8 |
| 20260507165406 | 59 | 243 | 6.1 | 11.3 | 0.00 | 0.81 | 0.81 | 67 | 1003.7 |
| 20260507165205 | 59 | 232 | 5.2 | 9.6 | 0.00 | 0.81 | 0.81 | 67 | 1003.9 |
| 20260507165104 | 59 | 240 | 5.2 | 11.3 | 0.00 | 0.81 | 0.81 | 67 | 1003.8 |
| 20260507165016 | 59 | 246 | 6.1 | 11.3 | 0.00 | 0.81 | 0.81 | 67 | 1003.6 |
| 20260507165004 | 59 | 245 | 3.5 | 11.3 | 0.00 | 0.81 | 0.81 | 67 | 1003.9 |
| 20260507164904 | 59 | 244 | 7.0 | 11.3 | 0.00 | 0.81 | 0.81 | 67 | 1003.7 |
| 20260507164818 | 59 | 247 | 3.5 | 11.3 | 0.00 | 0.81 | 0.81 | 67 | 1004.1 |
| 20260507164705 | 59 | 252 | 5.2 | 11.3 | 0.00 | 0.81 | 0.81 | 67 | 1003.8 |
| 20260507164615 | 59 | 246 | 7.0 | 11.3 | 0.00 | 0.81 | 0.81 | 67 | 1003.8 |
| 20260507164504 | 59 | 243 | 5.2 | 9.6 | 0.00 | 0.81 | 0.81 | 67 | 1003.5 |
| 20260507164305 | 59 | 243 | 4.3 | 7.8 | 0.00 | 0.81 | 0.81 | 68 | 1003.6 |
| 20260507164205 | 59 | 242 | 5.2 | 7.8 | 0.00 | 0.81 | 0.81 | 68 | 1003.8 |
| 20260507164003 | 59 | 245 | 3.5 | 7.0 | 0.00 | 0.81 | 0.81 | 69 | 1003.5 |
| 20260507163906 | 59 | 257 | 3.5 | 9.6 | 0.00 | 0.81 | 0.81 | 69 | 1003.4 |
| 20260507163804 | 59 | 256 | 3.5 | 11.3 | 0.00 | 0.81 | 0.81 | 69 | 1003.4 |
| 20260507163605 | 59 | 250 | 3.5 | 11.3 | 0.00 | 0.81 | 0.81 | 69 | 1003.4 |
| 20260507163504 | 59 | 250 | 2.6 | 11.3 | 0.00 | 0.81 | 0.81 | 69 | 1003.4 |
| 20260507163404 | 59 | 241 | 7.0 | 11.3 | 0.00 | 0.81 | 0.81 | 68 | 1003.5 |
| 20260507163304 | 59 | 241 | 6.1 | 11.3 | 0.00 | 0.81 | 0.81 | 68 | 1003.4 |
| 20260507163204 | 59 | 246 | 6.1 | 11.3 | 0.00 | 0.81 | 0.81 | 69 | 1003.4 |
| 20260507163103 | 59 | 260 | 7.0 | 11.3 | 0.00 | 0.81 | 0.81 | 69 | 1003.5 |
| 20260507163004 | 59 | 265 | 7.0 | 11.3 | 0.00 | 0.81 | 0.81 | 69 | 1003.6 |
| 20260507162903 | 59 | 272 | 6.1 | 11.3 | 0.00 | 0.81 | 0.81 | 69 | 1003.5 |
| 20260507162805 | 59 | 278 | 6.1 | 11.3 | 0.00 | 0.81 | 0.81 | 69 | 1003.6 |
| 20260507162704 | 59 | 271 | 7.0 | 11.3 | 0.00 | 0.81 | 0.81 | 69 | 1003.7 |
| 20260507162603 | 59 | 268 | 5.2 | 11.3 | 0.00 | 0.81 | 0.81 | 69 | 1003.6 |
| 20260507162504 | 59 | 255 | 4.3 | 11.3 | 0.00 | 0.81 | 0.81 | 69 | 1003.7 |
| 20260507162405 | 59 | 251 | 4.3 | 11.3 | 0.00 | 0.81 | 0.81 | 69 | 1003.5 |
| 20260507162307 | 59 | 249 | 4.3 | 11.3 | 0.00 | 0.81 | 0.81 | 69 | 1003.4 |
| 20260507162203 | 59 | 251 | 4.3 | 11.3 | 0.00 | 0.81 | 0.81 | 69 | 1003.5 |
| 20260507162105 | 59 | 240 | 6.1 | 11.3 | 0.00 | 0.81 | 0.81 | 69 | 1003.7 |
| 20260507162004 | 59 | 244 | 7.0 | 9.6 | 0.00 | 0.81 | 0.81 | 69 | 1003.4 |
| 20260507161907 | 59 | 245 | 5.2 | 9.6 | 0.00 | 0.81 | 0.81 | 69 | 1003.4 |
| 20260507161803 | 59 | 218 | 3.5 | 17.4 | 0.00 | 0.81 | 0.81 | 69 | 1003.3 |
| 20260507161703 | 59 | 219 | 5.2 | 17.4 | 0.00 | 0.81 | 0.81 | 69 | 1003.1 |
| 20260507161603 | 59 | 224 | 7.0 | 17.4 | 0.00 | 0.81 | 0.81 | 69 | 1002.9 |
| 20260507161505 | 59 | 222 | 5.2 | 17.4 | 0.00 | 0.81 | 0.81 | 69 | 1003.0 |
| 20260507161403 | 58 | 227 | 9.6 | 17.4 | 0.00 | 0.81 | 0.81 | 68 | 1002.9 |
| 20260507161305 | 58 | 244 | 7.8 | 13.0 | 0.00 | 0.81 | 0.81 | 69 | 1002.8 |
| 20260507161203 | 58 | 246 | 9.6 | 13.0 | 0.00 | 0.81 | 0.81 | 69 | 1002.8 |
| 20260507161103 | 58 | 244 | 8.7 | 12.2 | 0.00 | 0.81 | 0.81 | 69 | 1002.9 |
| 20260507161005 | 58 | 249 | 7.0 | 13.9 | 0.00 | 0.81 | 0.81 | 69 | 1002.7 |
| 20260507160913 | 58 | 236 | 5.2 | 13.9 | 0.00 | 0.81 | 0.81 | 69 | 1002.8 |
| 20260507160903 | 58 | 233 | 5.2 | 13.9 | 0.00 | 0.81 | 0.81 | 69 | 1002.8 |
| 20260507160803 | 58 | 228 | 7.0 | 13.9 | 0.00 | 0.81 | 0.81 | 69 | 1002.6 |
| 20260507160603 | 58 | 225 | 6.1 | 13.9 | 0.00 | 0.81 | 0.81 | 70 | 1002.7 |
| 20260507160503 | 58 | 217 | 7.8 | 13.9 | 0.00 | 0.81 | 0.81 | 70 | 1002.4 |
| 20260507160404 | 58 | 213 | 3.5 | 12.2 | 0.00 | 0.81 | 0.81 | 71 | 1002.5 |
| 20260507160304 | 58 | 219 | 7.0 | 12.2 | 0.00 | 0.81 | 0.81 | 70 | 1002.7 |
| 20260507160218 | 58 | 223 | 4.3 | 11.3 | 0.00 | 0.81 | 0.81 | 70 | 1002.6 |
| 20260507160204 | 58 | 225 | 4.3 | 9.6 | 0.00 | 0.81 | 0.81 | 70 | 1002.4 |
| 20260507160106 | 58 | 234 | 3.5 | 11.3 | 0.00 | 0.81 | 0.81 | 70 | 1002.7 |
| 20260507155907 | 58 | 252 | 7.0 | 11.3 | 0.00 | 0.81 | 0.81 | 70 | 1002.6 |
| 20260507155805 | 58 | 251 | 6.1 | 11.3 | 0.00 | 0.81 | 0.81 | 70 | 1002.6 |
| 20260507155706 | 58 | 256 | 6.1 | 11.3 | 0.00 | 0.81 | 0.81 | 70 | 1002.3 |
| 20260507155615 | 58 | 261 | 5.2 | 11.3 | 0.00 | 0.81 | 0.81 | 70 | 1002.4 |
| 20260507155604 | 58 | 262 | 5.2 | 11.3 | 0.00 | 0.81 | 0.81 | 70 | 1002.4 |
| 20260507155506 | 58 | 260 | 3.5 | 11.3 | 0.00 | 0.81 | 0.81 | 70 | 1002.4 |
| 20260507155206 | 58 | 258 | 5.2 | 11.3 | 0.00 | 0.81 | 0.81 | 69 | 1002.1 |
| 20260507155104 | 58 | 253 | 5.2 | 11.3 | 0.00 | 0.81 | 0.81 | 69 | 1002.1 |
| 20260507155016 | 58 | 254 | 4.3 | 11.3 | 0.00 | 0.81 | 0.81 | 69 | 1002.1 |
| 20260507155005 | 58 | 252 | 7.0 | 9.6 | 0.00 | 0.81 | 0.81 | 69 | 1001.9 |
| 20260507154905 | 58 | 241 | 5.2 | 9.6 | 0.00 | 0.81 | 0.81 | 69 | 1001.9 |
| 20260507154708 | 58 | 240 | 4.3 | 9.6 | 0.00 | 0.81 | 0.81 | 69 | 1001.9 |
| 20260507154603 | 58 | 229 | 3.5 | 7.8 | 0.00 | 0.81 | 0.81 | 70 | 1001.9 |
| 20260507154404 | 58 | 238 | 3.5 | 9.6 | 0.00 | 0.81 | 0.81 | 70 | 1001.6 |
| 20260507154309 | 58 | 235 | 3.5 | 9.6 | 0.00 | 0.81 | 0.81 | 70 | 1001.7 |
| 20260507154205 | 58 | 229 | 3.5 | 9.6 | 0.00 | 0.81 | 0.81 | 70 | 1001.4 |
| 20260507154103 | 58 | 231 | 2.6 | 9.6 | 0.00 | 0.81 | 0.81 | 70 | 1001.7 |
| 20260507154004 | 58 | 226 | 2.6 | 9.6 | 0.00 | 0.81 | 0.81 | 70 | 1001.4 |
| 20260507153903 | 58 | 228 | 5.2 | 9.6 | 0.00 | 0.81 | 0.81 | 70 | 1001.6 |
| 20260507153805 | 58 | 227 | 5.2 | 9.6 | 0.00 | 0.81 | 0.81 | 70 | 1001.9 |
| 20260507153707 | 58 | 232 | 5.2 | 9.6 | 0.00 | 0.81 | 0.81 | 70 | 1001.9 |
| 20260507153504 | 58 | 238 | 4.3 | 13.0 | 0.00 | 0.81 | 0.81 | 71 | 1002.0 |
| 20260507153403 | 58 | 239 | 3.5 | 13.0 | 0.00 | 0.81 | 0.81 | 71 | 1002.2 |
| 20260507153204 | 58 | 240 | 5.2 | 13.0 | 0.00 | 0.81 | 0.81 | 71 | 1002.5 |
| 20260507153103 | 58 | 238 | 5.2 | 13.0 | 0.00 | 0.81 | 0.81 | 71 | 1002.5 |
| 20260507153003 | 58 | 254 | 6.1 | 11.3 | 0.00 | 0.81 | 0.81 | 72 | 1002.4 |
| 20260507152905 | 58 | 248 | 3.5 | 9.6 | 0.00 | 0.81 | 0.81 | 72 | 1002.6 |
| 20260507152803 | 58 | 254 | 3.5 | 7.0 | 0.00 | 0.81 | 0.81 | 73 | 1002.5 |
| 20260507152704 | 58 | 249 | 2.6 | 7.0 | 0.00 | 0.81 | 0.81 | 73 | 1002.8 |
| 20260507152603 | 58 | 252 | 4.3 | 7.0 | 0.00 | 0.81 | 0.81 | 73 | 1002.8 |
| 20260507152516 | 58 | 237 | 3.5 | 7.0 | 0.00 | 0.81 | 0.81 | 73 | 1002.8 |
| 20260507152404 | 58 | 232 | 1.7 | 7.0 | 0.00 | 0.81 | 0.81 | 73 | 1002.7 |
| 20260507152204 | 58 | 234 | 1.7 | 7.0 | 0.00 | 0.81 | 0.81 | 73 | 1002.8 |
| 20260507152105 | 58 | 232 | 3.5 | 7.8 | 0.00 | 0.81 | 0.81 | 73 | 1003.2 |
| 20260507152003 | 58 | 236 | 3.5 | 7.8 | 0.00 | 0.81 | 0.81 | 73 | 1003.3 |
| 20260507151905 | 58 | 239 | 4.3 | 7.8 | 0.00 | 0.81 | 0.81 | 73 | 1003.1 |
| 20260507151805 | 58 | 242 | 3.5 | 9.6 | 0.00 | 0.81 | 0.81 | 73 | 1003.2 |
| 20260507151703 | 58 | 241 | 5.2 | 9.6 | 0.00 | 0.81 | 0.81 | 72 | 1003.2 |
| 20260507151619 | 58 | 245 | 6.1 | 9.6 | 0.00 | 0.81 | 0.81 | 73 | 1003.5 |
| 20260507151603 | 58 | 248 | 6.1 | 9.6 | 0.00 | 0.81 | 0.81 | 73 | 1003.5 |
| 20260507151505 | 58 | 246 | 3.5 | 9.6 | 0.00 | 0.81 | 0.81 | 73 | 1003.5 |
| 20260507151303 | 58 | 254 | 5.2 | 9.6 | 0.00 | 0.81 | 0.81 | 73 | 1003.8 |
| 20260507151204 | 58 | 249 | 5.2 | 7.0 | 0.00 | 0.81 | 0.81 | 73 | 1003.8 |
| 20260507151104 | 59 | 248 | 2.6 | 6.1 | 0.00 | 0.81 | 0.81 | 73 | 1003.9 |
| 20260507151004 | 59 | 253 | 3.5 | 6.1 | 0.00 | 0.81 | 0.81 | 72 | 1004.0 |
| 20260507150905 | 59 | 244 | 3.5 | 6.1 | 0.00 | 0.81 | 0.81 | 72 | 1004.1 |
| 20260507150805 | 59 | 227 | 2.6 | 7.0 | 0.00 | 0.81 | 0.81 | 72 | 1003.8 |
| 20260507150705 | 59 | 233 | 2.6 | 7.8 | 0.00 | 0.81 | 0.81 | 72 | 1004.4 |
| 20260507150607 | 59 | 227 | 2.6 | 7.8 | 0.00 | 0.81 | 0.81 | 72 | 1004.1 |
| 20260507150504 | 59 | 224 | 3.5 | 7.8 | 0.00 | 0.81 | 0.81 | 72 | 1004.3 |
| 20260507150405 | 59 | 233 | 3.5 | 7.8 | 0.00 | 0.81 | 0.81 | 71 | 1004.5 |
| 20260507150304 | 59 | 236 | 4.3 | 7.8 | 0.00 | 0.81 | 0.81 | 71 | 1004.2 |
| 20260507150204 | 59 | 233 | 3.5 | 7.0 | 0.00 | 0.81 | 0.81 | 71 | 1004.3 |
| 20260507150103 | 59 | 241 | 2.6 | 7.0 | 0.00 | 0.81 | 0.81 | 71 | 1004.5 |
| 20260507150005 | 59 | 247 | 3.5 | 7.0 | 0.00 | 0.81 | 0.81 | 71 | 1004.4 |
| 20260507145904 | 59 | 246 | 4.3 | 7.0 | 0.00 | 0.81 | 0.81 | 71 | 1004.5 |
| 20260507145804 | 59 | 248 | 3.5 | 7.0 | 0.00 | 0.81 | 0.81 | 71 | 1004.5 |
| 20260507145717 | 59 | 255 | 4.3 | 7.0 | 0.00 | 0.81 | 0.81 | 72 | 1004.5 |
| 20260507145704 | 59 | 258 | 4.3 | 7.0 | 0.00 | 0.81 | 0.81 | 72 | 1004.5 |
| 20260507145403 | 59 | 257 | 2.6 | 11.3 | 0.00 | 0.81 | 0.81 | 71 | 1005.0 |
| 20260507145306 | 59 | 254 | 2.6 | 11.3 | 0.00 | 0.81 | 0.81 | 71 | 1004.9 |
| 20260507145203 | 59 | 251 | 4.3 | 11.3 | 0.00 | 0.81 | 0.81 | 71 | 1005.0 |
| 20260507145004 | 59 | 254 | 4.3 | 9.6 | 0.00 | 0.81 | 0.81 | 71 | 1005.1 |
| 20260507144903 | 59 | 247 | 4.3 | 9.6 | 0.00 | 0.81 | 0.81 | 71 | 1005.1 |
| 20260507144803 | 59 | 248 | 6.1 | 9.6 | 0.00 | 0.81 | 0.81 | 71 | 1005.1 |
| 20260507144703 | 59 | 259 | 3.5 | 9.6 | 0.00 | 0.81 | 0.81 | 71 | 1004.8 |
| 20260507144609 | 59 | 255 | 6.1 | 12.2 | 0.00 | 0.81 | 0.81 | 70 | 1004.8 |
| 20260507144503 | 59 | 270 | 3.5 | 12.2 | 0.00 | 0.81 | 0.81 | 71 | 1004.8 |
| 20260507144403 | 59 | 291 | 5.2 | 12.2 | 0.00 | 0.81 | 0.81 | 71 | 1004.8 |
| 20260507144303 | 59 | 287 | 3.5 | 12.2 | 0.00 | 0.81 | 0.81 | 71 | 1004.9 |
| 20260507144204 | 59 | 265 | 4.3 | 13.0 | 0.00 | 0.81 | 0.81 | 70 | 1004.8 |
| 20260507144105 | 59 | 262 | 6.1 | 13.0 | 0.00 | 0.81 | 0.81 | 70 | 1004.6 |
| 20260507144005 | 59 | 255 | 5.2 | 13.0 | 0.00 | 0.81 | 0.81 | 70 | 1004.7 |
| 20260507143904 | 59 | 243 | 5.2 | 13.0 | 0.00 | 0.81 | 0.81 | 70 | 1004.7 |
| 20260507143803 | 59 | 246 | 5.2 | 13.0 | 0.00 | 0.81 | 0.81 | 70 | 1004.5 |
| 20260507143708 | 59 | 249 | 8.7 | 13.9 | 0.00 | 0.81 | 0.81 | 70 | 1004.5 |
| 20260507143603 | 59 | 247 | 6.1 | 13.9 | 0.00 | 0.81 | 0.81 | 71 | 1004.6 |
| 20260507143503 | 59 | 236 | 4.3 | 14.8 | 0.00 | 0.81 | 0.81 | 71 | 1004.3 |
| 20260507143403 | 59 | 236 | 6.1 | 14.8 | 0.00 | 0.81 | 0.81 | 70 | 1004.1 |
| 20260507143305 | 59 | 238 | 4.3 | 14.8 | 0.00 | 0.81 | 0.81 | 70 | 1004.0 |
| 20260507143217 | 59 | 240 | 5.2 | 14.8 | 0.00 | 0.81 | 0.81 | 70 | 1003.7 |
| 20260507143205 | 59 | 242 | 5.2 | 14.8 | 0.00 | 0.81 | 0.81 | 70 | 1003.7 |
| 20260507143103 | 59 | 239 | 6.1 | 14.8 | 0.00 | 0.81 | 0.81 | 70 | 1003.8 |
| 20260507142903 | 59 | 237 | 4.3 | 12.2 | 0.00 | 0.81 | 0.81 | 70 | 1003.6 |
| 20260507142804 | 59 | 226 | 5.2 | 12.2 | 0.00 | 0.81 | 0.81 | 70 | 1003.2 |
| 20260507142704 | 59 | 223 | 5.2 | 12.2 | 0.00 | 0.81 | 0.81 | 69 | 1003.1 |
| 20260507142603 | 59 | 228 | 3.5 | 12.2 | 0.00 | 0.81 | 0.81 | 69 | 1002.5 |
| 20260507142504 | 59 | 237 | 7.0 | 12.2 | 0.00 | 0.81 | 0.81 | 70 | 1002.2 |
| 20260507142405 | 59 | 240 | 4.3 | 11.3 | 0.00 | 0.81 | 0.81 | 71 | 1002.6 |
| 20260507142307 | 59 | 238 | 5.2 | 11.3 | 0.00 | 0.81 | 0.81 | 71 | 1002.2 |
| 20260507142207 | 59 | 235 | 6.1 | 13.9 | 0.00 | 0.81 | 0.81 | 71 | 1002.5 |
| 20260507142105 | 59 | 232 | 6.1 | 14.8 | 0.00 | 0.81 | 0.81 | 71 | 1002.3 |
| 20260507142004 | 59 | 225 | 7.0 | 14.8 | 0.00 | 0.81 | 0.81 | 71 | 1002.4 |
| 20260507141904 | 59 | 233 | 5.2 | 14.8 | 0.00 | 0.81 | 0.81 | 70 | 1002.4 |
| 20260507141805 | 59 | 242 | 5.2 | 14.8 | 0.00 | 0.81 | 0.81 | 70 | 1002.5 |
| 20260507141716 | 59 | 248 | 7.0 | 14.8 | 0.00 | 0.81 | 0.81 | 70 | 1002.6 |
| 20260507141705 | 59 | 249 | 7.0 | 14.8 | 0.00 | 0.81 | 0.81 | 70 | 1002.6 |
| 20260507141604 | 59 | 248 | 10.4 | 14.8 | 0.00 | 0.81 | 0.81 | 70 | 1002.8 |
| 20260507141518 | 59 | 253 | 8.7 | 13.9 | 0.00 | 0.81 | 0.81 | 71 | 1002.9 |
| 20260507141404 | 59 | 246 | 7.8 | 13.9 | 0.00 | 0.81 | 0.81 | 71 | 1003.2 |
| 20260507141204 | 59 | 235 | 7.0 | 13.9 | 0.00 | 0.81 | 0.81 | 71 | 1003.2 |
| 20260507141104 | 59 | 239 | 9.6 | 13.9 | 0.00 | 0.81 | 0.81 | 71 | 1003.0 |
| 20260507141004 | 59 | 233 | 8.7 | 13.9 | 0.00 | 0.81 | 0.81 | 70 | 1002.9 |
| 20260507140904 | 59 | 230 | 7.0 | 13.9 | 0.00 | 0.81 | 0.81 | 70 | 1003.1 |
| 20260507140805 | 59 | 217 | 7.0 | 13.0 | 0.00 | 0.81 | 0.81 | 70 | 1003.2 |
| 20260507140705 | 59 | 218 | 6.1 | 12.2 | 0.00 | 0.81 | 0.81 | 71 | 1002.7 |
| 20260507140605 | 59 | 221 | 4.3 | 11.3 | 0.00 | 0.81 | 0.81 | 71 | 1002.7 |
| 20260507140505 | 59 | 223 | 3.5 | 9.6 | 0.00 | 0.81 | 0.81 | 71 | 1002.6 |
| 20260507140417 | 59 | 221 | 7.0 | 9.6 | 0.00 | 0.81 | 0.81 | 71 | 1002.6 |
| 20260507140403 | 59 | 216 | 7.0 | 9.6 | 0.00 | 0.81 | 0.81 | 71 | 1002.6 |
| 20260507140303 | 59 | 219 | 6.1 | 9.6 | 0.00 | 0.81 | 0.81 | 71 | 1002.5 |
| 20260507140113 | 59 | 203 | 5.2 | 11.3 | 0.00 | 0.81 | 0.81 | 71 | 1003.0 |
| 20260507140104 | 59 | 207 | 5.2 | 11.3 | 0.00 | 0.81 | 0.81 | 71 | 1003.0 |
| 20260507140005 | 59 | 205 | 4.3 | 11.3 | 0.00 | 0.81 | 0.81 | 71 | 1002.8 |
| 20260507135915 | 59 | 219 | 5.2 | 11.3 | 0.00 | 0.81 | 0.81 | 71 | 1003.0 |
| 20260507135819 | 59 | 213 | 3.5 | 11.3 | 0.00 | 0.81 | 0.81 | 71 | 1003.0 |
| 20260507135805 | 59 | 213 | 6.1 | 11.3 | 0.00 | 0.81 | 0.81 | 70 | 1003.1 |
| 20260507135616 | 59 | 226 | 4.3 | 9.6 | 0.00 | 0.81 | 0.81 | 70 | 1002.7 |
| 20260507135504 | 60 | 223 | 4.3 | 9.6 | 0.00 | 0.81 | 0.81 | 70 | 1002.9 |
| 20260507135317 | 60 | 230 | 3.5 | 11.3 | 0.00 | 0.81 | 0.81 | 71 | 1002.8 |
| 20260507135204 | 60 | 226 | 4.3 | 11.3 | 0.00 | 0.81 | 0.81 | 71 | 1002.9 |
| 20260507135005 | 60 | 220 | 5.2 | 12.2 | 0.00 | 0.81 | 0.81 | 71 | 1002.7 |
| 20260507134903 | 60 | 218 | 5.2 | 12.2 | 0.00 | 0.81 | 0.81 | 70 | 1002.5 |
| 20260507134803 | 60 | 203 | 5.2 | 12.2 | 0.00 | 0.81 | 0.81 | 71 | 1002.6 |
| 20260507134703 | 59 | 208 | 7.0 | 12.2 | 0.00 | 0.81 | 0.81 | 70 | 1002.8 |
| 20260507134604 | 60 | 222 | 3.5 | 11.3 | 0.00 | 0.81 | 0.81 | 71 | 1002.7 |
| 20260507134516 | 59 | 228 | 7.0 | 11.3 | 0.00 | 0.81 | 0.81 | 71 | 1002.6 |
| 20260507134503 | 59 | 226 | 7.0 | 11.3 | 0.00 | 0.81 | 0.81 | 71 | 1002.6 |
| 20260507134403 | 60 | 234 | 5.2 | 13.0 | 0.00 | 0.81 | 0.81 | 71 | 1002.7 |
| 20260507134203 | 60 | 239 | 7.0 | 13.0 | 0.00 | 0.81 | 0.81 | 70 | 1002.6 |
| 20260507134104 | 60 | 238 | 5.2 | 13.0 | 0.00 | 0.81 | 0.81 | 70 | 1002.4 |
| 20260507134004 | 60 | 238 | 5.2 | 13.0 | 0.00 | 0.81 | 0.81 | 70 | 1002.1 |
| 20260507133903 | 59 | 236 | 7.8 | 13.0 | 0.00 | 0.81 | 0.81 | 70 | 1002.2 |
| 20260507133816 | 60 | 238 | 7.8 | 13.0 | 0.00 | 0.81 | 0.81 | 70 | 1002.1 |
| 20260507133803 | 60 | 240 | 3.5 | 13.0 | 0.00 | 0.81 | 0.81 | 71 | 1002.3 |
| 20260507133705 | 60 | 238 | 4.3 | 13.0 | 0.00 | 0.81 | 0.81 | 71 | 1002.3 |
| 20260507133504 | 60 | 237 | 4.3 | 13.0 | 0.00 | 0.81 | 0.81 | 71 | 1002.1 |
| 20260507133404 | 60 | 228 | 7.0 | 13.0 | 0.00 | 0.81 | 0.81 | 71 | 1002.2 |
| 20260507133303 | 60 | 220 | 6.1 | 13.0 | 0.00 | 0.81 | 0.81 | 71 | 1001.9 |
| 20260507133207 | 60 | 225 | 4.3 | 11.3 | 0.00 | 0.81 | 0.81 | 71 | 1002.1 |
| 20260507133103 | 60 | 228 | 7.0 | 11.3 | 0.00 | 0.81 | 0.81 | 71 | 1002.1 |
| 20260507133005 | 60 | 213 | 3.5 | 11.3 | 0.00 | 0.81 | 0.81 | 71 | 1001.9 |
| 20260507132918 | 60 | 230 | 4.3 | 11.3 | 0.00 | 0.81 | 0.81 | 72 | 1002.0 |
| 20260507132804 | 60 | 249 | 3.5 | 13.0 | 0.00 | 0.81 | 0.81 | 71 | 1001.8 |
| 20260507132604 | 60 | 233 | 5.2 | 13.9 | 0.00 | 0.81 | 0.81 | 71 | 1001.9 |
| 20260507132505 | 60 | 237 | 6.1 | 13.9 | 0.00 | 0.81 | 0.81 | 72 | 1002.0 |
| 20260507132416 | 60 | 240 | 6.1 | 13.9 | 0.00 | 0.81 | 0.81 | 72 | 1002.0 |
| 20260507132404 | 60 | 241 | 6.1 | 13.9 | 0.00 | 0.81 | 0.81 | 72 | 1002.0 |
| 20260507132307 | 60 | 239 | 7.0 | 13.9 | 0.00 | 0.81 | 0.81 | 71 | 1001.9 |
| 20260507132104 | 60 | 242 | 7.0 | 12.2 | 0.00 | 0.81 | 0.81 | 72 | 1002.1 |
| 20260507132004 | 60 | 243 | 7.0 | 13.0 | 0.00 | 0.81 | 0.81 | 72 | 1002.3 |
| 20260507131817 | 60 | 243 | 4.3 | 13.0 | 0.00 | 0.81 | 0.81 | 72 | 1002.3 |
| 20260507131805 | 60 | 243 | 4.3 | 13.0 | 0.00 | 0.81 | 0.81 | 72 | 1002.2 |
| 20260507131708 | 60 | 243 | 4.3 | 13.0 | 0.00 | 0.81 | 0.81 | 72 | 1002.2 |
| 20260507131505 | 60 | 243 | 8.7 | 13.0 | 0.00 | 0.81 | 0.81 | 72 | 1002.3 |
| 20260507131405 | 60 | 248 | 2.6 | 14.8 | 0.00 | 0.81 | 0.81 | 73 | 1002.4 |
| 20260507131304 | 60 | 245 | 4.3 | 14.8 | 0.00 | 0.81 | 0.81 | 72 | 1002.3 |
| 20260507131204 | 60 | 245 | 5.2 | 14.8 | 0.00 | 0.81 | 0.81 | 73 | 1002.4 |
| 20260507131103 | 60 | 245 | 7.0 | 14.8 | 0.00 | 0.81 | 0.81 | 73 | 1002.5 |
| 20260507131004 | 60 | 244 | 7.0 | 14.8 | 0.00 | 0.81 | 0.81 | 73 | 1002.5 |
| 20260507130906 | 60 | 238 | 4.3 | 14.8 | 0.00 | 0.81 | 0.81 | 74 | 1002.7 |
| 20260507130805 | 60 | 236 | 6.1 | 14.8 | 0.00 | 0.81 | 0.81 | 73 | 1002.5 |
| 20260507130604 | 60 | 230 | 7.0 | 14.8 | 0.00 | 0.81 | 0.81 | 74 | 1002.5 |
| 20260507130304 | 60 | 231 | 4.3 | 13.9 | 0.00 | 0.81 | 0.81 | 74 | 1003.0 |
| 20260507130205 | 60 | 227 | 4.3 | 13.9 | 0.00 | 0.81 | 0.81 | 74 | 1002.9 |
| 20260507130107 | 60 | 233 | 7.8 | 13.9 | 0.00 | 0.81 | 0.81 | 74 | 1003.0 |
| 20260507130004 | 60 | 236 | 7.0 | 13.9 | 0.00 | 0.81 | 0.81 | 74 | 1003.1 |
| 20260507125903 | 60 | 238 | 5.2 | 12.2 | 0.00 | 0.81 | 0.81 | 74 | 1003.1 |
| 20260507125804 | 60 | 235 | 7.0 | 12.2 | 0.00 | 0.81 | 0.81 | 74 | 1003.1 |
| 20260507125605 | 60 | 232 | 7.0 | 12.2 | 0.00 | 0.81 | 0.81 | 74 | 1003.1 |
| 20260507125503 | 60 | 237 | 7.0 | 11.3 | 0.00 | 0.81 | 0.81 | 75 | 1003.0 |
| 20260507125307 | 60 | 238 | 7.8 | 11.3 | 0.00 | 0.81 | 0.81 | 75 | 1003.0 |
| 20260507125205 | 60 | 243 | 7.0 | 11.3 | 0.00 | 0.81 | 0.81 | 75 | 1002.8 |
| 20260507125104 | 60 | 243 | 3.5 | 11.3 | 0.00 | 0.81 | 0.81 | 76 | 1002.9 |
| 20260507125003 | 60 | 237 | 4.3 | 11.3 | 0.00 | 0.81 | 0.81 | 76 | 1002.8 |
| 20260507124903 | 60 | 238 | 4.3 | 13.0 | 0.00 | 0.81 | 0.81 | 76 | 1002.6 |
| 20260507124805 | 60 | 236 | 5.2 | 13.0 | 0.00 | 0.81 | 0.81 | 76 | 1002.7 |
| 20260507124703 | 60 | 232 | 2.6 | 13.0 | 0.00 | 0.81 | 0.81 | 76 | 1002.5 |
| 20260507124603 | 60 | 236 | 3.5 | 13.0 | 0.00 | 0.81 | 0.81 | 75 | 1002.5 |
| 20260507124503 | 60 | 232 | 3.5 | 13.0 | 0.00 | 0.81 | 0.81 | 75 | 1002.5 |
| 20260507124404 | 60 | 228 | 7.0 | 13.0 | 0.00 | 0.81 | 0.81 | 75 | 1002.5 |
| 20260507124303 | 60 | 226 | 3.5 | 13.9 | 0.00 | 0.81 | 0.81 | 75 | 1002.3 |
| 20260507124203 | 60 | 222 | 4.3 | 13.9 | 0.00 | 0.81 | 0.81 | 75 | 1002.0 |
| 20260507124116 | 60 | 219 | 5.2 | 13.9 | 0.00 | 0.81 | 0.81 | 75 | 1002.1 |
| 20260507124103 | 60 | 222 | 5.2 | 13.9 | 0.00 | 0.81 | 0.81 | 75 | 1002.1 |
| 20260507124019 | 60 | 226 | 4.3 | 13.9 | 0.00 | 0.81 | 0.81 | 75 | 1002.4 |
| 20260507124003 | 60 | 225 | 4.3 | 13.9 | 0.00 | 0.81 | 0.81 | 75 | 1002.4 |
| 20260507123704 | 60 | 236 | 5.2 | 9.6 | 0.00 | 0.81 | 0.81 | 75 | 1002.3 |
| 20260507123604 | 60 | 234 | 4.3 | 9.6 | 0.00 | 0.81 | 0.81 | 75 | 1002.4 |
| 20260507123504 | 60 | 236 | 4.3 | 9.6 | 0.00 | 0.81 | 0.81 | 75 | 1002.4 |
| 20260507123405 | 60 | 241 | 3.5 | 9.6 | 0.00 | 0.81 | 0.81 | 75 | 1002.5 |
| 20260507123305 | 60 | 250 | 3.5 | 9.6 | 0.00 | 0.81 | 0.81 | 75 | 1002.5 |
| 20260507123204 | 60 | 250 | 3.5 | 9.6 | 0.00 | 0.81 | 0.81 | 75 | 1002.6 |
| 20260507123105 | 60 | 238 | 3.5 | 12.2 | 0.00 | 0.81 | 0.81 | 75 | 1002.1 |
| 20260507123015 | 60 | 241 | 3.5 | 12.2 | 0.00 | 0.81 | 0.81 | 75 | 1002.1 |
| 20260507123005 | 60 | 238 | 3.5 | 12.2 | 0.00 | 0.81 | 0.81 | 75 | 1002.1 |
| 20260507122910 | 60 | 230 | 5.2 | 12.2 | 0.00 | 0.81 | 0.81 | 74 | 1002.2 |
| 20260507122705 | 60 | 220 | 5.2 | 12.2 | 0.00 | 0.81 | 0.81 | 74 | 1002.1 |
| 20260507122603 | 61 | 231 | 4.3 | 9.6 | 0.00 | 0.81 | 0.81 | 74 | 1002.1 |
| 20260507122504 | 61 | 214 | 6.1 | 9.6 | 0.00 | 0.81 | 0.81 | 74 | 1001.9 |
| 20260507122403 | 61 | 205 | 3.5 | 9.6 | 0.00 | 0.81 | 0.81 | 74 | 1002.1 |
| 20260507122307 | 61 | 202 | 3.5 | 9.6 | 0.00 | 0.81 | 0.81 | 74 | 1001.7 |
| 20260507122204 | 61 | 206 | 3.5 | 12.2 | 0.00 | 0.81 | 0.81 | 74 | 1001.7 |
| 20260507122117 | 61 | 209 | 3.5 | 12.2 | 0.00 | 0.81 | 0.81 | 74 | 1001.6 |
| 20260507122104 | 61 | 213 | 3.5 | 12.2 | 0.00 | 0.81 | 0.81 | 74 | 1001.6 |
| 20260507122004 | 61 | 228 | 4.3 | 12.2 | 0.00 | 0.81 | 0.81 | 74 | 1001.6 |
| 20260507121805 | 61 | 222 | 3.5 | 12.2 | 0.00 | 0.81 | 0.81 | 74 | 1001.3 |
| 20260507121703 | 61 | 227 | 6.1 | 12.2 | 0.00 | 0.81 | 0.81 | 74 | 1001.4 |
| 20260507121606 | 61 | 225 | 3.5 | 9.6 | 0.00 | 0.81 | 0.81 | 74 | 1001.4 |
| 20260507121504 | 61 | 222 | 4.3 | 9.6 | 0.00 | 0.81 | 0.81 | 74 | 1001.4 |
| 20260507121418 | 61 | 223 | 5.2 | 9.6 | 0.00 | 0.81 | 0.81 | 74 | 1001.6 |
| 20260507121405 | 61 | 226 | 3.5 | 9.6 | 0.00 | 0.81 | 0.81 | 74 | 1001.5 |
| 20260507121304 | 61 | 235 | 5.2 | 9.6 | 0.00 | 0.81 | 0.81 | 74 | 1001.6 |
| 20260507121105 | 61 | 241 | 3.5 | 9.6 | 0.00 | 0.81 | 0.81 | 74 | 1001.6 |
| 20260507121004 | 61 | 242 | 3.5 | 9.6 | 0.00 | 0.81 | 0.81 | 74 | 1001.2 |
| 20260507120915 | 61 | 244 | 2.6 | 9.6 | 0.00 | 0.81 | 0.81 | 74 | 1001.0 |
| 20260507120905 | 61 | 243 | 2.6 | 9.6 | 0.00 | 0.81 | 0.81 | 74 | 1001.0 |
| 20260507120804 | 61 | 242 | 4.3 | 9.6 | 0.00 | 0.81 | 0.81 | 74 | 1000.9 |
| 20260507120605 | 61 | 238 | 1.7 | 7.8 | 0.00 | 0.81 | 0.81 | 75 | 1001.3 |
| 20260507120504 | 61 | 234 | 3.5 | 9.6 | 0.00 | 0.81 | 0.81 | 74 | 1001.0 |
| 20260507120403 | 61 | 239 | 3.5 | 9.6 | 0.00 | 0.81 | 0.81 | 74 | 1001.1 |
| 20260507120304 | 61 | 235 | 3.5 | 9.6 | 0.00 | 0.81 | 0.81 | 74 | 1001.3 |
| 20260507120204 | 61 | 238 | 3.5 | 9.6 | 0.00 | 0.81 | 0.81 | 74 | 1001.2 |
| 20260507120103 | 61 | 210 | 3.5 | 11.3 | 0.00 | 0.81 | 0.81 | 74 | 1001.4 |
| 20260507120005 | 61 | 201 | 5.2 | 11.3 | 0.00 | 0.81 | 0.81 | 74 | 1001.3 |
| 20260507115904 | 61 | 174 | 3.5 | 11.3 | 0.00 | 0.81 | 0.81 | 74 | 1001.3 |
| 20260507115815 | 61 | 184 | 3.5 | 11.3 | 0.00 | 0.81 | 0.81 | 74 | 1001.0 |
| 20260507115803 | 61 | 187 | 4.3 | 11.3 | 0.00 | 0.81 | 0.81 | 74 | 1000.8 |
| 20260507115705 | 61 | 207 | 5.2 | 11.3 | 0.00 | 0.81 | 0.81 | 74 | 1001.1 |
| 20260507115503 | 61 | 196 | 3.5 | 9.6 | 0.00 | 0.81 | 0.81 | 74 | 1000.9 |
| 20260507115403 | 61 | 202 | 4.3 | 9.6 | 0.00 | 0.81 | 0.81 | 73 | 1001.0 |
| 20260507115307 | 61 | 202 | 3.5 | 9.6 | 0.00 | 0.81 | 0.81 | 73 | 1001.1 |
| 20260507115217 | 61 | 204 | 3.5 | 9.6 | 0.00 | 0.81 | 0.81 | 73 | 1001.0 |
| 20260507115206 | 61 | 206 | 3.5 | 9.6 | 0.00 | 0.81 | 0.81 | 73 | 1001.0 |
| 20260507115103 | 61 | 204 | 3.5 | 9.6 | 0.00 | 0.81 | 0.81 | 73 | 1001.1 |
| 20260507114903 | 62 | 227 | 4.3 | 9.6 | 0.00 | 0.81 | 0.81 | 72 | 1000.8 |
| 20260507114803 | 62 | 184 | 2.6 | 9.6 | 0.00 | 0.81 | 0.81 | 72 | 1000.9 |
| 20260507114705 | 62 | 184 | 4.3 | 9.6 | 0.00 | 0.81 | 0.81 | 72 | 1000.8 |
| 20260507114603 | 62 | 201 | 5.2 | 9.6 | 0.00 | 0.81 | 0.81 | 72 | 1000.9 |
| 20260507114503 | 62 | 183 | 3.5 | 9.6 | 0.00 | 0.81 | 0.81 | 72 | 1000.9 |
| 20260507114415 | 62 | 184 | 3.5 | 9.6 | 0.00 | 0.81 | 0.81 | 72 | 1001.3 |
| 20260507114403 | 62 | 180 | 3.5 | 9.6 | 0.00 | 0.81 | 0.81 | 72 | 1001.3 |
| 20260507114304 | 62 | 181 | 4.3 | 9.6 | 0.00 | 0.81 | 0.81 | 72 | 1001.2 |
| 20260507114104 | 62 | 199 | 4.3 | 7.8 | 0.00 | 0.81 | 0.81 | 72 | 1000.9 |
| 20260507114004 | 62 | 204 | 3.5 | 7.8 | 0.00 | 0.81 | 0.81 | 72 | 1001.1 |
| 20260507113905 | 62 | 198 | 3.5 | 7.8 | 0.00 | 0.81 | 0.81 | 72 | 1001.2 |
| 20260507113804 | 62 | 201 | 4.3 | 9.6 | 0.00 | 0.81 | 0.81 | 72 | 1001.7 |
| 20260507113604 | 62 | 191 | 3.5 | 9.6 | 0.00 | 0.81 | 0.81 | 72 | 1001.8 |
| 20260507113503 | 62 | 198 | 3.5 | 9.6 | 0.00 | 0.81 | 0.81 | 72 | 1001.9 |
| 20260507113403 | 62 | 217 | 1.7 | 9.6 | 0.00 | 0.81 | 0.81 | 72 | 1001.9 |
| 20260507113315 | 62 | 223 | 4.3 | 11.3 | 0.00 | 0.81 | 0.81 | 72 | 1001.8 |
| 20260507113213 | 62 | 222 | 2.6 | 11.3 | 0.00 | 0.81 | 0.81 | 72 | 1001.8 |
| 20260507113204 | 62 | 215 | 2.6 | 11.3 | 0.00 | 0.81 | 0.81 | 72 | 1001.8 |
| 20260507112903 | 62 | 190 | 2.6 | 11.3 | 0.00 | 0.81 | 0.81 | 73 | 1001.3 |
| 20260507112806 | 62 | 192 | 5.2 | 11.3 | 0.00 | 0.81 | 0.81 | 72 | 1001.0 |
| 20260507112704 | 62 | 197 | 4.3 | 11.3 | 0.00 | 0.81 | 0.81 | 72 | 1000.8 |
| 20260507112609 | 62 | 204 | 5.2 | 11.3 | 0.00 | 0.81 | 0.81 | 73 | 1000.7 |
| 20260507112417 | 62 | 220 | 3.5 | 11.3 | 0.00 | 0.81 | 0.81 | 73 | 1000.4 |
| 20260507112403 | 62 | 226 | 3.5 | 11.3 | 0.00 | 0.81 | 0.81 | 73 | 1000.4 |
| 20260507112307 | 62 | 239 | 6.1 | 11.3 | 0.00 | 0.81 | 0.81 | 73 | 1000.3 |
| 20260507112004 | 62 | 242 | 3.5 | 12.2 | 0.00 | 0.81 | 0.81 | 74 | 1000.1 |
| 20260507111904 | 62 | 232 | 5.2 | 12.2 | 0.00 | 0.81 | 0.81 | 73 | 999.8 |
| 20260507111805 | 62 | 196 | 6.1 | 13.0 | 0.00 | 0.81 | 0.81 | 74 | 1000.0 |
| 20260507111703 | 62 | 172 | 5.2 | 13.0 | 0.00 | 0.81 | 0.81 | 74 | 1000.1 |
| 20260507111603 | 62 | 175 | 2.6 | 13.0 | 0.00 | 0.81 | 0.81 | 74 | 1000.1 |
| 20260507111506 | 62 | 181 | 6.1 | 13.0 | 0.00 | 0.81 | 0.81 | 73 | 1000.3 |
| 20260507111403 | 62 | 185 | 6.1 | 13.0 | 0.00 | 0.81 | 0.81 | 73 | 1000.3 |
| 20260507111304 | 62 | 182 | 5.2 | 12.2 | 0.00 | 0.81 | 0.81 | 73 | 1000.5 |
| 20260507111204 | 62 | 180 | 5.2 | 12.2 | 0.00 | 0.81 | 0.81 | 73 | 1000.8 |
| 20260507111104 | 63 | 194 | 4.3 | 11.3 | 0.00 | 0.81 | 0.81 | 73 | 1000.7 |
| 20260507111003 | 63 | 171 | 3.5 | 11.3 | 0.00 | 0.81 | 0.81 | 73 | 1001.0 |
| 20260507110916 | 63 | 144 | 4.3 | 11.3 | 0.00 | 0.81 | 0.81 | 73 | 1000.8 |
| 20260507110903 | 63 | 147 | 4.3 | 11.3 | 0.00 | 0.81 | 0.81 | 73 | 1000.8 |
| 20260507110805 | 63 | 210 | 4.3 | 11.3 | 0.00 | 0.81 | 0.81 | 73 | 1001.1 |
| 20260507110713 | 63 | 233 | 7.0 | 11.3 | 0.00 | 0.81 | 0.81 | 73 | 1001.2 |
| 20260507110603 | 63 | 213 | 3.5 | 12.2 | 0.00 | 0.81 | 0.81 | 74 | 1000.9 |
| 20260507110405 | 63 | 229 | 3.5 | 12.2 | 0.00 | 0.81 | 0.81 | 74 | 1000.7 |
| 20260507110305 | 63 | 234 | 6.1 | 12.2 | 0.00 | 0.81 | 0.81 | 74 | 1000.4 |
| 20260507110203 | 63 | 237 | 7.0 | 12.2 | 0.00 | 0.81 | 0.81 | 76 | 1000.4 |
| 20260507110103 | 63 | 234 | 7.0 | 14.8 | 0.00 | 0.81 | 0.81 | 76 | 1000.6 |
| 20260507110007 | 63 | 222 | 7.8 | 14.8 | 0.00 | 0.81 | 0.81 | 77 | 1000.0 |
| 20260507105904 | 63 | 190 | 5.2 | 14.8 | 0.00 | 0.81 | 0.81 | 78 | 1000.1 |
| 20260507105803 | 64 | 182 | 3.5 | 14.8 | 0.00 | 0.81 | 0.81 | 80 | 1000.0 |
| 20260507105703 | 64 | 183 | 2.6 | 14.8 | 0.00 | 0.81 | 0.81 | 81 | 999.8 |
| 20260507105604 | 64 | 190 | 7.0 | 14.8 | 0.00 | 0.81 | 0.81 | 80 | 999.4 |
| 20260507105505 | 64 | 203 | 5.2 | 14.8 | 0.00 | 0.81 | 0.81 | 81 | 999.2 |
| 20260507105403 | 64 | 212 | 5.2 | 14.8 | 0.00 | 0.81 | 0.81 | 81 | 998.8 |
| 20260507105306 | 64 | 216 | 7.0 | 14.8 | 0.00 | 0.81 | 0.81 | 81 | 998.6 |
| 20260507105217 | 64 | 229 | 7.0 | 14.8 | 0.00 | 0.81 | 0.81 | 81 | 998.5 |
| 20260507105203 | 64 | 232 | 7.0 | 14.8 | 0.00 | 0.81 | 0.81 | 81 | 998.5 |
| 20260507105103 | 64 | 243 | 7.8 | 13.9 | 0.00 | 0.81 | 0.81 | 81 | 998.2 |
| 20260507104903 | 64 | 253 | 7.0 | 14.8 | 0.00 | 0.81 | 0.81 | 81 | 997.5 |
| 20260507104816 | 64 | 251 | 9.6 | 14.8 | 0.00 | 0.81 | 0.81 | 82 | 997.7 |
| 20260507104805 | 64 | 245 | 9.6 | 14.8 | 0.00 | 0.81 | 0.81 | 82 | 997.7 |
| 20260507104705 | 64 | 235 | 6.1 | 14.8 | 0.00 | 0.81 | 0.81 | 82 | 997.9 |
| 20260507104405 | 63 | 229 | 7.0 | 15.6 | 0.00 | 0.81 | 0.81 | 84 | 998.0 |
| 20260507104304 | 63 | 227 | 7.0 | 15.6 | 0.00 | 0.81 | 0.81 | 86 | 998.0 |
| 20260507104205 | 63 | 238 | 6.1 | 15.6 | 0.00 | 0.81 | 0.81 | 87 | 998.4 |
| 20260507104103 | 63 | 244 | 10.4 | 15.6 | 0.00 | 0.81 | 0.81 | 88 | 998.3 |
| 20260507104005 | 63 | 248 | 7.0 | 14.8 | 0.00 | 0.81 | 0.81 | 89 | 998.0 |
| 20260507103903 | 63 | 243 | 4.3 | 14.8 | 0.00 | 0.81 | 0.81 | 89 | 998.4 |
| 20260507103804 | 63 | 242 | 7.8 | 14.8 | 0.00 | 0.81 | 0.81 | 90 | 998.2 |
| 20260507103704 | 64 | 224 | 6.1 | 11.3 | 0.00 | 0.81 | 0.81 | 91 | 998.3 |
| 20260507103603 | 64 | 221 | 5.2 | 11.3 | 0.00 | 0.81 | 0.81 | 91 | 998.1 |
| 20260507103507 | 64 | 233 | 6.1 | 11.3 | 0.00 | 0.81 | 0.81 | 91 | 998.2 |
| 20260507103417 | 64 | 245 | 6.1 | 11.3 | 0.00 | 0.81 | 0.81 | 91 | 998.1 |
| 20260507103404 | 64 | 248 | 7.0 | 13.0 | 0.00 | 0.81 | 0.81 | 91 | 997.8 |
| 20260507103316 | 64 | 251 | 5.2 | 13.9 | 0.00 | 0.81 | 0.81 | 91 | 998.1 |
| 20260507103303 | 64 | 250 | 5.2 | 13.9 | 0.00 | 0.81 | 0.81 | 91 | 998.1 |
| 20260507103004 | 64 | 223 | 7.0 | 15.6 | 0.00 | 0.81 | 0.81 | 91 | 998.0 |
| 20260507102904 | 64 | 218 | 7.0 | 15.6 | 0.00 | 0.81 | 0.81 | 91 | 997.7 |
| 20260507102804 | 64 | 219 | 6.1 | 15.6 | 0.00 | 0.81 | 0.81 | 91 | 997.6 |
| 20260507102704 | 64 | 225 | 7.0 | 15.6 | 0.00 | 0.81 | 0.81 | 91 | 997.5 |
| 20260507102604 | 64 | 227 | 7.0 | 15.6 | 0.00 | 0.81 | 0.81 | 91 | 997.3 |
| 20260507102514 | 64 | 230 | 7.0 | 15.6 | 0.00 | 0.81 | 0.81 | 91 | 997.3 |
| 20260507102503 | 64 | 231 | 7.0 | 15.6 | 0.00 | 0.81 | 0.81 | 91 | 997.3 |
| 20260507102403 | 64 | 233 | 7.0 | 13.0 | 0.00 | 0.81 | 0.81 | 91 | 997.2 |
| 20260507102316 | 64 | 234 | 7.0 | 13.0 | 0.00 | 0.81 | 0.81 | 91 | 997.1 |
| 20260507102204 | 64 | 218 | 3.5 | 15.6 | 0.00 | 0.81 | 0.81 | 91 | 997.0 |
| 20260507102004 | 64 | 220 | 3.5 | 15.6 | 0.00 | 0.81 | 0.81 | 90 | 996.9 |
| 20260507101903 | 64 | 207 | 5.2 | 18.2 | 0.00 | 0.81 | 0.81 | 90 | 996.6 |
| 20260507101803 | 64 | 208 | 9.6 | 18.2 | 0.00 | 0.81 | 0.81 | 90 | 996.4 |
| 20260507101713 | 64 | 223 | 9.6 | 18.2 | 0.00 | 0.81 | 0.81 | 90 | 996.4 |
| 20260507101703 | 64 | 220 | 9.6 | 18.2 | 0.00 | 0.81 | 0.81 | 90 | 996.4 |
| 20260507101617 | 64 | 211 | 7.0 | 18.2 | 0.00 | 0.81 | 0.81 | 90 | 996.4 |
| 20260507101306 | 64 | 209 | 8.7 | 18.2 | 0.00 | 0.81 | 0.81 | 89 | 996.7 |
| 20260507101216 | 64 | 215 | 7.8 | 18.2 | 0.00 | 0.81 | 0.81 | 89 | 996.9 |
| 20260507101205 | 64 | 220 | 7.8 | 18.2 | 0.00 | 0.81 | 0.81 | 89 | 996.9 |
| 20260507101103 | 64 | 227 | 7.8 | 20.9 | 0.00 | 0.81 | 0.81 | 89 | 997.1 |
| 20260507100805 | 64 | 234 | 10.4 | 20.9 | 0.00 | 0.81 | 0.81 | 89 | 997.5 |
| 20260507100704 | 64 | 239 | 9.6 | 25.2 | 0.00 | 0.81 | 0.81 | 89 | 997.6 |
| 20260507100603 | 65 | 233 | 7.0 | 25.2 | 0.00 | 0.81 | 0.81 | 88 | 997.7 |
| 20260507100503 | 65 | 234 | 7.0 | 25.2 | 0.00 | 0.81 | 0.81 | 88 | 997.6 |
| 20260507100415 | 65 | 236 | 9.6 | 25.2 | 0.00 | 0.81 | 0.81 | 88 | 997.6 |
| 20260507100403 | 65 | 237 | 9.6 | 25.2 | 0.00 | 0.81 | 0.81 | 88 | 997.6 |
| 20260507100310 | 65 | 234 | 12.2 | 25.2 | 0.00 | 0.81 | 0.81 | 88 | 997.5 |
| 20260507100104 | 65 | 241 | 9.6 | 18.2 | 0.00 | 0.81 | 0.81 | 88 | 997.8 |
| 20260507100005 | 65 | 236 | 7.0 | 18.2 | 0.00 | 0.81 | 0.81 | 88 | 997.9 |
| 20260507095904 | 65 | 235 | 7.0 | 18.2 | 0.00 | 0.81 | 0.81 | 88 | 997.8 |
| 20260507095816 | 65 | 232 | 8.7 | 18.2 | 0.00 | 0.81 | 0.81 | 88 | 997.9 |
| 20260507095805 | 65 | 229 | 7.8 | 18.2 | 0.00 | 0.81 | 0.81 | 88 | 998.0 |
| 20260507095715 | 65 | 210 | 7.0 | 18.2 | 0.00 | 0.81 | 0.81 | 88 | 998.2 |
| 20260507095704 | 65 | 207 | 7.0 | 18.2 | 0.00 | 0.81 | 0.81 | 88 | 998.2 |
| 20260507095404 | 65 | 220 | 7.0 | 20.9 | 0.00 | 0.81 | 0.81 | 88 | 998.5 |
| 20260507095306 | 65 | 217 | 7.8 | 20.9 | 0.00 | 0.81 | 0.81 | 88 | 998.6 |
| 20260507095203 | 65 | 220 | 7.0 | 20.9 | 0.00 | 0.81 | 0.81 | 88 | 998.6 |
| 20260507095103 | 65 | 225 | 7.8 | 20.9 | 0.00 | 0.81 | 0.81 | 88 | 998.7 |
| 20260507095005 | 65 | 220 | 7.0 | 15.6 | 0.00 | 0.81 | 0.81 | 89 | 998.6 |
| 20260507094904 | 65 | 217 | 8.7 | 15.6 | 0.00 | 0.81 | 0.81 | 89 | 998.8 |
| 20260507094804 | 65 | 235 | 7.8 | 15.6 | 0.00 | 0.81 | 0.81 | 89 | 998.8 |
| 20260507094703 | 65 | 241 | 10.4 | 15.6 | 0.00 | 0.81 | 0.81 | 89 | 998.9 |
| 20260507094604 | 65 | 245 | 6.1 | 13.9 | 0.00 | 0.81 | 0.81 | 89 | 998.7 |
| 20260507094513 | 65 | 247 | 6.1 | 13.9 | 0.00 | 0.81 | 0.81 | 89 | 998.8 |
| 20260507094504 | 65 | 245 | 6.1 | 13.9 | 0.00 | 0.81 | 0.81 | 89 | 998.8 |
| 20260507094405 | 65 | 251 | 7.0 | 19.1 | 0.00 | 0.81 | 0.81 | 89 | 998.7 |
| 20260507094204 | 65 | 262 | 6.1 | 19.1 | 0.00 | 0.81 | 0.81 | 89 | 998.8 |
| 20260507094117 | 65 | 258 | 7.0 | 19.1 | 0.00 | 0.81 | 0.81 | 89 | 998.7 |
| 20260507094107 | 65 | 256 | 7.0 | 19.1 | 0.00 | 0.81 | 0.81 | 89 | 998.7 |
| 20260507094004 | 65 | 261 | 7.0 | 19.1 | 0.00 | 0.81 | 0.81 | 89 | 998.6 |
| 20260507093915 | 65 | 256 | 6.1 | 19.1 | 0.00 | 0.81 | 0.81 | 89 | 998.4 |
| 20260507093803 | 65 | 261 | 7.8 | 14.8 | 0.00 | 0.81 | 0.81 | 90 | 998.7 |
| 20260507093604 | 64 | 240 | 7.0 | 14.8 | 0.00 | 0.81 | 0.81 | 90 | 998.6 |
| 20260507093505 | 64 | 247 | 7.8 | 13.0 | 0.00 | 0.81 | 0.81 | 90 | 998.4 |
| 20260507093409 | 64 | 247 | 6.1 | 12.2 | 0.00 | 0.81 | 0.81 | 90 | 998.3 |
| 20260507093316 | 64 | 224 | 4.3 | 11.3 | 0.00 | 0.81 | 0.81 | 90 | 998.5 |
| 20260507093303 | 64 | 223 | 4.3 | 11.3 | 0.00 | 0.81 | 0.81 | 90 | 998.5 |
| 20260507093203 | 64 | 227 | 7.0 | 12.2 | 0.00 | 0.81 | 0.81 | 90 | 998.4 |
| 20260507093003 | 64 | 232 | 5.2 | 14.8 | 0.00 | 0.81 | 0.81 | 90 | 998.0 |
| 20260507092903 | 64 | 225 | 4.3 | 14.8 | 0.00 | 0.81 | 0.81 | 90 | 998.5 |
| 20260507092803 | 64 | 226 | 4.3 | 14.8 | 0.00 | 0.81 | 0.81 | 90 | 998.3 |
| 20260507092703 | 64 | 224 | 7.0 | 14.8 | 0.00 | 0.81 | 0.81 | 90 | 998.4 |
| 20260507092606 | 64 | 226 | 7.0 | 15.6 | 0.00 | 0.81 | 0.81 | 91 | 998.4 |
| 20260507092505 | 64 | 224 | 6.1 | 15.6 | 0.00 | 0.81 | 0.81 | 91 | 998.6 |
| 20260507092403 | 64 | 212 | 6.1 | 15.6 | 0.00 | 0.81 | 0.81 | 91 | 998.4 |
| 20260507092307 | 64 | 224 | 5.2 | 15.6 | 0.00 | 0.81 | 0.81 | 91 | 998.8 |
| 20260507092205 | 64 | 236 | 7.0 | 15.6 | 0.00 | 0.81 | 0.81 | 91 | 998.6 |
| 20260507092105 | 64 | 211 | 8.7 | 15.6 | 0.00 | 0.81 | 0.81 | 92 | 998.6 |
| 20260507092003 | 64 | 199 | 8.7 | 14.8 | 0.00 | 0.81 | 0.81 | 92 | 998.4 |
| 20260507091903 | 64 | 193 | 8.7 | 14.8 | 0.00 | 0.81 | 0.81 | 92 | 998.7 |
| 20260507091803 | 64 | 202 | 5.2 | 14.8 | 0.00 | 0.81 | 0.81 | 92 | 998.6 |
| 20260507091605 | 64 | 215 | 7.0 | 14.8 | 0.00 | 0.81 | 0.81 | 92 | 998.5 |
| 20260507091503 | 64 | 202 | 7.0 | 13.9 | 0.00 | 0.81 | 0.81 | 92 | 998.7 |
| 20260507091404 | 64 | 216 | 5.2 | 12.2 | 0.00 | 0.81 | 0.81 | 93 | 998.7 |
| 20260507091303 | 64 | 209 | 5.2 | 12.2 | 0.00 | 0.81 | 0.81 | 93 | 998.6 |
| 20260507091203 | 64 | 208 | 4.3 | 12.2 | 0.00 | 0.81 | 0.81 | 93 | 998.6 |
| 20260507091103 | 64 | 206 | 3.5 | 12.2 | 0.01 | 0.81 | 0.81 | 93 | 998.6 |
| 20260507091005 | 64 | 216 | 4.3 | 12.2 | 0.01 | 0.81 | 0.81 | 93 | 998.8 |
| 20260507090903 | 64 | 226 | 7.0 | 12.2 | 0.01 | 0.81 | 0.81 | 93 | 999.0 |
| 20260507090804 | 64 | 231 | 7.0 | 12.2 | 0.01 | 0.81 | 0.81 | 93 | 999.3 |
| 20260507090704 | 64 | 230 | 5.2 | 9.6 | 0.01 | 0.81 | 0.81 | 93 | 999.2 |
| 20260507090604 | 64 | 240 | 3.5 | 12.2 | 0.01 | 0.81 | 0.81 | 93 | 999.2 |
| 20260507090517 | 64 | 246 | 3.5 | 12.2 | 0.01 | 0.81 | 0.81 | 93 | 999.4 |
| 20260507090506 | 64 | 248 | 3.5 | 12.2 | 0.01 | 0.81 | 0.81 | 93 | 999.4 |
| 20260507090404 | 64 | 259 | 3.5 | 12.2 | 0.01 | 0.81 | 0.81 | 93 | 999.3 |
| 20260507090319 | 64 | 257 | 4.3 | 12.2 | 0.01 | 0.81 | 0.81 | 93 | 999.3 |
| 20260507090218 | 64 | 249 | 4.3 | 12.2 | 0.02 | 0.81 | 0.81 | 93 | 999.4 |
| 20260507090205 | 64 | 247 | 7.0 | 12.2 | 0.02 | 0.81 | 0.81 | 93 | 999.2 |
| 20260507090116 | 64 | 231 | 4.3 | 12.2 | 0.02 | 0.81 | 0.81 | 93 | 999.4 |
| 20260507085804 | 64 | 221 | 7.0 | 12.2 | 0.02 | 0.81 | 0.81 | 93 | 999.4 |
| 20260507085704 | 64 | 233 | 4.3 | 12.2 | 0.02 | 0.81 | 0.81 | 94 | 999.7 |
| 20260507085604 | 64 | 250 | 6.1 | 12.2 | 0.02 | 0.81 | 0.81 | 94 | 999.6 |
| 20260507085503 | 65 | 257 | 7.0 | 12.2 | 0.02 | 0.81 | 0.81 | 94 | 999.7 |
| 20260507085416 | 65 | 257 | 5.2 | 9.6 | 0.02 | 0.81 | 0.81 | 94 | 999.6 |
| 20260507085403 | 65 | 255 | 4.3 | 9.6 | 0.02 | 0.81 | 0.81 | 94 | 999.9 |
| 20260507085306 | 65 | 252 | 7.0 | 9.6 | 0.02 | 0.81 | 0.81 | 94 | 999.7 |
| 20260507085104 | 65 | 242 | 3.5 | 9.6 | 0.02 | 0.81 | 0.81 | 94 | 999.8 |
| 20260507085004 | 65 | 248 | 3.5 | 7.0 | 0.02 | 0.81 | 0.81 | 94 | 999.6 |
| 20260507084904 | 65 | 245 | 3.5 | 7.0 | 0.02 | 0.81 | 0.81 | 94 | 1000.0 |
| 20260507084804 | 65 | 241 | 2.6 | 6.1 | 0.02 | 0.81 | 0.81 | 94 | 999.7 |
| 20260507084704 | 65 | 247 | 3.5 | 6.1 | 0.02 | 0.81 | 0.81 | 94 | 999.8 |
| 20260507084615 | 65 | 241 | 2.6 | 6.1 | 0.02 | 0.81 | 0.81 | 94 | 999.8 |
| 20260507084604 | 65 | 241 | 3.5 | 7.0 | 0.02 | 0.81 | 0.81 | 94 | 999.9 |
| 20260507084503 | 65 | 232 | 3.5 | 7.0 | 0.02 | 0.81 | 0.81 | 94 | 999.8 |
| 20260507084417 | 65 | 225 | 3.5 | 7.0 | 0.02 | 0.81 | 0.81 | 94 | 999.7 |
| 20260507084303 | 65 | 228 | 2.6 | 7.0 | 0.02 | 0.81 | 0.81 | 94 | 999.8 |
| 20260507084118 | 65 | 233 | 3.5 | 7.0 | 0.02 | 0.81 | 0.81 | 94 | 999.7 |
| 20260507084105 | 65 | 231 | 3.5 | 7.0 | 0.02 | 0.81 | 0.81 | 94 | 999.7 |
| 20260507084003 | 65 | 228 | 2.6 | 7.0 | 0.02 | 0.81 | 0.81 | 94 | 999.8 |
| 20260507083717 | 65 | 232 | 2.6 | 7.0 | 0.02 | 0.81 | 0.81 | 94 | 1000.1 |
| 20260507083705 | 65 | 233 | 2.6 | 7.0 | 0.02 | 0.81 | 0.81 | 94 | 1000.1 |
| 20260507083605 | 65 | 238 | 3.5 | 7.8 | 0.02 | 0.81 | 0.81 | 94 | 1000.2 |
| 20260507083404 | 65 | 240 | 3.5 | 7.8 | 0.02 | 0.81 | 0.81 | 94 | 1000.2 |
| 20260507083303 | 65 | 240 | 3.5 | 7.8 | 0.02 | 0.81 | 0.81 | 94 | 1000.1 |
| 20260507083203 | 65 | 239 | 3.5 | 7.8 | 0.02 | 0.81 | 0.81 | 94 | 1000.2 |
| 20260507083119 | 65 | 240 | 3.5 | 7.8 | 0.02 | 0.81 | 0.81 | 94 | 1000.0 |
| 20260507083103 | 65 | 241 | 3.5 | 7.8 | 0.02 | 0.81 | 0.81 | 94 | 1000.0 |
| 20260507083004 | 65 | 244 | 2.6 | 7.8 | 0.02 | 0.81 | 0.81 | 94 | 1000.0 |
| 20260507082803 | 65 | 230 | 1.7 | 7.8 | 0.02 | 0.81 | 0.81 | 94 | 999.7 |
| 20260507082703 | 65 | 226 | 1.7 | 12.2 | 0.02 | 0.81 | 0.81 | 94 | 999.8 |
| 20260507082603 | 65 | 233 | 2.6 | 12.2 | 0.02 | 0.81 | 0.81 | 94 | 999.7 |
| 20260507082515 | 65 | 216 | 3.5 | 12.2 | 0.02 | 0.81 | 0.81 | 94 | 999.7 |
| 20260507082403 | 65 | 214 | 3.5 | 12.2 | 0.02 | 0.81 | 0.81 | 94 | 999.6 |
| 20260507082203 | 65 | 228 | 5.2 | 9.6 | 0.02 | 0.81 | 0.81 | 94 | 999.4 |
| 20260507082103 | 65 | 214 | 3.5 | 9.6 | 0.02 | 0.81 | 0.81 | 95 | 999.5 |
| 20260507082003 | 65 | 234 | 4.3 | 7.8 | 0.02 | 0.81 | 0.81 | 95 | 999.5 |
| 20260507081903 | 65 | 244 | 3.5 | 7.8 | 0.02 | 0.81 | 0.81 | 95 | 999.4 |
| 20260507081816 | 65 | 243 | 4.3 | 7.8 | 0.02 | 0.81 | 0.81 | 95 | 999.4 |
| 20260507081805 | 65 | 239 | 3.5 | 7.8 | 0.02 | 0.81 | 0.81 | 95 | 999.5 |
| 20260507081703 | 65 | 229 | 3.5 | 7.8 | 0.02 | 0.81 | 0.81 | 95 | 999.5 |
| 20260507081618 | 66 | 228 | 3.5 | 7.8 | 0.02 | 0.81 | 0.81 | 95 | 999.5 |
| 20260507081503 | 66 | 230 | 2.6 | 7.0 | 0.02 | 0.81 | 0.81 | 95 | 999.6 |
| 20260507081305 | 66 | 228 | 2.6 | 5.2 | 0.02 | 0.81 | 0.81 | 95 | 999.7 |
| 20260507081204 | 66 | 229 | 1.7 | 3.5 | 0.02 | 0.81 | 0.81 | 95 | 999.8 |
| 20260507081104 | 66 | 231 | 1.7 | 3.5 | 0.01 | 0.80 | 0.81 | 95 | 1000.2 |
| 20260507081004 | 66 | 221 | 1.7 | 3.5 | 0.01 | 0.80 | 0.80 | 95 | 1000.3 |
| 20260507080805 | 66 | 211 | 1.7 | 5.2 | 0.01 | 0.80 | 0.80 | 95 | 1000.6 |
| 20260507080704 | 66 | 224 | 2.6 | 5.2 | 0.01 | 0.80 | 0.80 | 95 | 1000.6 |
| 20260507080504 | 66 | 229 | 1.7 | 11.3 | 0.01 | 0.80 | 0.80 | 95 | 1000.4 |
| 20260507080421 | 66 | 236 | 3.5 | 11.3 | 0.01 | 0.80 | 0.80 | 95 | 1000.6 |
| 20260507080403 | 66 | 241 | 3.5 | 11.3 | 0.01 | 0.80 | 0.80 | 95 | 1000.6 |
| 20260507080304 | 66 | 233 | 2.6 | 11.3 | 0.01 | 0.80 | 0.80 | 95 | 1000.4 |
| 20260507080105 | 66 | 216 | 2.6 | 9.6 | 0.00 | 0.79 | 0.79 | 95 | 999.8 |
| 20260507080004 | 66 | 224 | 2.6 | 9.6 | 0.00 | 0.79 | 0.79 | 95 | 999.7 |
| 20260507075904 | 66 | 227 | 2.6 | 9.6 | 0.00 | 0.79 | 0.79 | 95 | 999.5 |
| 20260507075804 | 66 | 233 | 4.3 | 9.6 | 0.00 | 0.79 | 0.79 | 95 | 999.0 |
| 20260507075705 | 66 | 239 | 3.5 | 9.6 | 0.00 | 0.79 | 0.79 | 95 | 999.5 |
| 20260507075615 | 66 | 238 | 3.5 | 7.0 | 0.00 | 0.79 | 0.79 | 95 | 998.8 |
| 20260507075603 | 66 | 236 | 3.5 | 7.0 | 0.00 | 0.79 | 0.79 | 95 | 998.8 |
| 20260507075504 | 66 | 227 | 2.6 | 6.1 | 0.00 | 0.79 | 0.79 | 95 | 999.0 |
| 20260507075306 | 67 | 202 | 2.6 | 6.1 | 0.00 | 0.79 | 0.79 | 95 | 999.1 |
| 20260507075214 | 67 | 203 | 1.7 | 6.1 | 0.00 | 0.79 | 0.79 | 95 | 999.3 |
| 20260507075205 | 67 | 204 | 1.7 | 6.1 | 0.00 | 0.79 | 0.79 | 95 | 999.3 |
| 20260507075118 | 67 | 202 | 3.5 | 6.1 | 0.00 | 0.79 | 0.79 | 95 | 999.0 |
| 20260507074804 | 67 | 231 | 1.7 | 7.8 | 0.00 | 0.79 | 0.79 | 95 | 999.1 |
| 20260507074703 | 67 | 239 | 1.7 | 7.8 | 0.00 | 0.79 | 0.79 | 95 | 998.8 |
| 20260507074603 | 67 | 239 | 2.6 | 7.8 | 0.00 | 0.79 | 0.79 | 95 | 998.8 |
| 20260507074505 | 67 | 225 | 2.6 | 7.8 | 0.00 | 0.79 | 0.79 | 95 | 998.9 |
| 20260507074404 | 67 | 229 | 1.7 | 7.8 | 0.00 | 0.79 | 0.79 | 95 | 999.0 |
| 20260507074304 | 67 | 236 | 3.5 | 7.8 | 0.00 | 0.79 | 0.79 | 95 | 999.0 |
| 20260507074203 | 67 | 240 | 1.7 | 7.0 | 0.00 | 0.79 | 0.79 | 95 | 999.0 |
| 20260507074105 | 67 | 235 | 1.7 | 7.0 | 0.00 | 0.79 | 0.79 | 95 | 998.7 |
| 20260507074004 | 67 | 231 | 1.7 | 7.0 | 0.00 | 0.79 | 0.79 | 95 | 998.6 |
| 20260507073903 | 67 | 220 | 3.5 | 7.0 | 0.00 | 0.79 | 0.79 | 95 | 998.8 |
| 20260507073803 | 67 | 212 | 3.5 | 7.0 | 0.00 | 0.79 | 0.79 | 95 | 998.5 |
| 20260507073703 | 67 | 209 | 3.5 | 7.0 | 0.00 | 0.79 | 0.79 | 95 | 998.4 |
| 20260507073605 | 67 | 206 | 3.5 | 7.0 | 0.00 | 0.79 | 0.79 | 95 | 998.3 |
| 20260507073504 | 67 | 211 | 3.5 | 7.0 | 0.00 | 0.79 | 0.79 | 95 | 998.2 |
| 20260507073419 | 67 | 209 | 3.5 | 7.0 | 0.00 | 0.79 | 0.79 | 95 | 998.3 |
| 20260507073403 | 67 | 213 | 3.5 | 7.0 | 0.00 | 0.79 | 0.79 | 95 | 998.5 |
| 20260507073303 | 67 | 224 | 1.7 | 7.0 | 0.00 | 0.79 | 0.79 | 95 | 998.2 |
| 20260507073103 | 67 | 195 | 2.6 | 9.6 | 0.00 | 0.79 | 0.79 | 95 | 998.3 |
| 20260507073004 | 67 | 197 | 2.6 | 9.6 | 0.00 | 0.79 | 0.79 | 95 | 998.2 |
| 20260507072903 | 67 | 198 | 3.5 | 9.6 | 0.00 | 0.79 | 0.79 | 95 | 998.2 |
| 20260507072803 | 67 | 197 | 3.5 | 9.6 | 0.00 | 0.79 | 0.79 | 95 | 998.3 |
| 20260507072703 | 67 | 195 | 2.6 | 9.6 | 0.00 | 0.79 | 0.79 | 95 | 998.2 |
| 20260507072603 | 67 | 212 | 3.5 | 7.8 | 0.00 | 0.79 | 0.79 | 95 | 998.4 |
| 20260507072505 | 67 | 205 | 4.3 | 7.8 | 0.00 | 0.79 | 0.79 | 95 | 998.3 |
| 20260507072403 | 67 | 198 | 3.5 | 7.8 | 0.00 | 0.79 | 0.79 | 95 | 998.4 |
| 20260507072307 | 67 | 188 | 3.5 | 7.8 | 0.00 | 0.79 | 0.79 | 95 | 998.4 |
| 20260507072203 | 67 | 195 | 5.2 | 7.8 | 0.00 | 0.79 | 0.79 | 95 | 998.4 |
| 20260507072105 | 67 | 192 | 2.6 | 7.0 | 0.00 | 0.79 | 0.79 | 95 | 998.5 |
| 20260507072005 | 67 | 176 | 2.6 | 5.2 | 0.00 | 0.79 | 0.79 | 95 | 998.4 |
| 20260507071905 | 67 | 180 | 2.6 | 5.2 | 0.00 | 0.79 | 0.79 | 95 | 998.6 |
| 20260507071804 | 67 | 195 | 2.6 | 5.2 | 0.00 | 0.79 | 0.79 | 95 | 998.4 |
| 20260507071716 | 67 | 182 | 2.6 | 5.2 | 0.00 | 0.79 | 0.79 | 95 | 998.3 |
| 20260507071705 | 67 | 179 | 2.6 | 5.2 | 0.00 | 0.79 | 0.79 | 95 | 998.3 |
| 20260507071605 | 67 | 174 | 2.6 | 5.2 | 0.00 | 0.79 | 0.79 | 95 | 998.3 |
| 20260507071517 | 67 | 187 | 2.6 | 5.2 | 0.00 | 0.79 | 0.79 | 95 | 998.3 |
| 20260507071403 | 67 | 199 | 1.7 | 3.5 | 0.00 | 0.79 | 0.79 | 95 | 997.9 |
| 20260507071204 | 67 | 210 | 1.7 | 3.5 | 0.00 | 0.79 | 0.79 | 95 | 998.0 |
| 20260507071105 | 67 | 215 | 1.7 | 3.5 | 0.00 | 0.79 | 0.79 | 95 | 998.0 |
| 20260507071004 | 67 | 221 | 1.7 | 3.5 | 0.00 | 0.79 | 0.79 | 95 | 998.0 |
| 20260507070903 | 67 | 225 | 1.7 | 3.5 | 0.00 | 0.79 | 0.79 | 95 | 998.0 |
| 20260507070805 | 67 | 220 | 2.6 | 3.5 | 0.00 | 0.79 | 0.79 | 95 | 998.0 |
| 20260507070704 | 67 | 215 | 1.7 | 3.5 | 0.00 | 0.79 | 0.79 | 95 | 998.2 |
| 20260507070605 | 67 | 193 | 0.9 | 3.5 | 0.00 | 0.79 | 0.79 | 95 | 998.2 |
| 20260507070504 | 67 | 194 | 1.7 | 3.5 | 0.00 | 0.79 | 0.79 | 95 | 998.1 |
| 20260507070403 | 67 | 199 | 1.7 | 3.5 | 0.00 | 0.79 | 0.79 | 95 | 998.1 |
| 20260507070304 | 67 | 205 | 1.7 | 3.5 | 0.00 | 0.79 | 0.79 | 95 | 998.0 |
| 20260507070205 | 67 | 211 | 1.7 | 3.5 | 0.00 | 0.79 | 0.79 | 95 | 998.3 |
| 20260507070104 | 67 | 223 | 1.7 | 5.2 | 0.00 | 0.79 | 0.79 | 95 | 998.2 |
| 20260507065904 | 67 | 228 | 1.7 | 5.2 | 0.00 | 0.79 | 0.79 | 95 | 998.3 |
| 20260507065806 | 67 | 218 | 0.9 | 5.2 | 0.00 | 0.79 | 0.79 | 95 | 998.5 |
| 20260507065704 | 67 | 220 | 1.7 | 5.2 | 0.00 | 0.79 | 0.79 | 95 | 998.5 |
| 20260507065603 | 67 | 219 | 2.6 | 5.2 | 0.00 | 0.79 | 0.79 | 95 | 998.6 |
| 20260507065503 | 67 | 222 | 1.7 | 3.5 | 0.00 | 0.79 | 0.79 | 95 | 998.6 |
| 20260507065404 | 67 | 219 | 1.7 | 5.2 | 0.00 | 0.79 | 0.79 | 95 | 998.4 |
| 20260507065307 | 67 | 228 | 1.7 | 5.2 | 0.00 | 0.79 | 0.79 | 95 | 998.6 |
| 20260507065205 | 67 | 229 | 1.7 | 5.2 | 0.00 | 0.79 | 0.79 | 95 | 998.3 |
| 20260507065104 | 67 | 232 | 1.7 | 5.2 | 0.00 | 0.79 | 0.79 | 95 | 998.4 |
| 20260507065017 | 67 | 233 | 1.7 | 5.2 | 0.00 | 0.79 | 0.79 | 95 | 998.5 |
| 20260507065004 | 67 | 234 | 2.6 | 5.2 | 0.00 | 0.79 | 0.79 | 95 | 998.5 |
| 20260507064904 | 67 | 233 | 1.7 | 3.5 | 0.00 | 0.79 | 0.79 | 95 | 998.3 |
| 20260507064703 | 67 | 227 | 1.7 | 3.5 | 0.00 | 0.79 | 0.79 | 95 | 998.4 |
| 20260507064603 | 67 | 226 | 1.7 | 3.5 | 0.00 | 0.79 | 0.79 | 95 | 998.4 |
| 20260507064504 | 67 | 234 | 1.7 | 3.5 | 0.00 | 0.79 | 0.79 | 95 | 998.5 |
| 20260507064405 | 67 | 237 | 1.7 | 3.5 | 0.00 | 0.79 | 0.79 | 95 | 998.4 |
| 20260507064304 | 67 | 237 | 1.7 | 3.5 | 0.00 | 0.79 | 0.79 | 95 | 998.4 |
| 20260507064203 | 67 | 242 | 0.0 | 3.5 | 0.00 | 0.79 | 0.79 | 95 | 998.1 |
| 20260507064105 | 67 | 240 | 0.9 | 3.5 | 0.00 | 0.79 | 0.79 | 94 | 998.3 |
| 20260507064006 | 67 | 232 | 1.7 | 3.5 | 0.00 | 0.79 | 0.79 | 94 | 998.3 |
| 20260507063906 | 67 | 230 | 1.7 | 3.5 | 0.00 | 0.79 | 0.79 | 94 | 998.1 |
| 20260507063804 | 67 | 232 | 1.7 | 3.5 | 0.00 | 0.79 | 0.79 | 94 | 998.1 |
| 20260507063703 | 67 | 231 | 1.7 | 3.5 | 0.00 | 0.79 | 0.79 | 94 | 997.9 |
| 20260507063603 | 67 | 230 | 0.9 | 3.5 | 0.00 | 0.79 | 0.79 | 94 | 998.0 |
| 20260507063414 | 67 | 233 | 1.7 | 5.2 | 0.02 | 0.79 | 0.79 | 94 | 997.9 |
| 20260507063308 | 67 | 226 | 1.7 | 5.2 | 0.05 | 0.79 | 0.79 | 94 | 998.0 |
| 20260507063103 | 67 | 222 | 1.7 | 5.2 | 0.11 | 0.79 | 0.79 | 94 | 998.2 |
| 20260507063005 | 67 | 217 | 1.7 | 5.2 | 0.14 | 0.79 | 0.79 | 94 | 998.1 |
| 20260507062917 | 67 | 215 | 2.6 | 5.2 | 0.14 | 0.79 | 0.79 | 94 | 997.9 |
| 20260507062903 | 67 | 217 | 2.6 | 5.2 | 0.14 | 0.79 | 0.79 | 94 | 997.9 |
| 20260507062803 | 67 | 223 | 1.7 | 3.5 | 0.14 | 0.79 | 0.79 | 94 | 998.0 |
| 20260507062604 | 67 | 233 | 1.7 | 3.5 | 0.14 | 0.79 | 0.79 | 94 | 997.7 |
| 20260507062504 | 67 | 230 | 1.7 | 3.5 | 0.14 | 0.79 | 0.79 | 94 | 997.9 |
| 20260507062404 | 67 | 230 | 1.7 | 3.5 | 0.14 | 0.79 | 0.79 | 94 | 997.9 |
| 20260507062306 | 67 | 230 | 1.7 | 3.5 | 0.14 | 0.79 | 0.79 | 94 | 997.7 |
| 20260507062218 | 67 | 226 | 1.7 | 3.5 | 0.14 | 0.80 | 0.79 | 94 | 997.8 |
| 20260507062207 | 67 | 226 | 1.7 | 3.5 | 0.14 | 0.80 | 0.79 | 94 | 997.7 |
| 20260507061904 | 67 | 240 | 1.7 | 3.5 | 0.14 | 0.80 | 0.79 | 94 | 997.6 |
| 20260507061804 | 67 | 242 | 1.7 | 3.5 | 0.15 | 0.80 | 0.79 | 94 | 997.5 |
| 20260507061705 | 67 | 243 | 1.7 | 3.5 | 0.15 | 0.80 | 0.79 | 94 | 997.5 |
| 20260507061604 | 67 | 243 | 1.7 | 3.5 | 0.17 | 0.80 | 0.79 | 94 | 997.8 |
| 20260507061504 | 67 | 239 | 1.7 | 3.5 | 0.17 | 0.83 | 0.79 | 94 | 997.7 |
| 20260507061404 | 67 | 235 | 0.9 | 3.5 | 0.17 | 0.83 | 0.79 | 94 | 997.9 |
| 20260507061305 | 67 | 232 | 0.9 | 3.5 | 0.17 | 0.83 | 0.79 | 94 | 997.9 |
| 20260507061218 | 67 | 234 | 1.7 | 3.5 | 0.17 | 0.83 | 0.79 | 94 | 997.6 |
| 20260507061204 | 67 | 233 | 1.7 | 3.5 | 0.17 | 0.83 | 0.79 | 94 | 997.6 |
| 20260507060904 | 67 | 238 | 1.7 | 3.5 | 0.17 | 0.83 | 0.79 | 94 | 997.6 |
| 20260507060804 | 67 | 246 | 1.7 | 3.5 | 0.17 | 0.83 | 0.79 | 94 | 997.7 |
| 20260507060704 | 67 | 252 | 1.7 | 3.5 | 0.17 | 0.83 | 0.79 | 94 | 998.1 |
| 20260507060603 | 67 | 255 | 0.9 | 3.5 | 0.17 | 0.84 | 0.79 | 94 | 997.9 |
| 20260507060513 | 67 | 255 | 0.9 | 3.5 | 0.17 | 0.84 | 0.79 | 94 | 998.0 |
| 20260507060503 | 67 | 254 | 0.9 | 3.5 | 0.17 | 0.84 | 0.79 | 94 | 998.0 |
| 20260507060406 | 67 | 253 | 1.7 | 3.5 | 0.17 | 0.84 | 0.79 | 94 | 998.2 |
| 20260507060205 | 67 | 245 | 0.9 | 3.5 | 0.17 | 0.85 | 0.79 | 94 | 998.0 |
| 20260507060103 | 67 | 244 | 0.0 | 3.5 | 0.17 | 0.85 | 0.79 | 94 | 997.6 |
| 20260507060004 | 67 | 243 | 0.9 | 3.5 | 0.17 | 0.85 | 0.79 | 94 | 997.9 |
| 20260507055904 | 67 | 246 | 1.7 | 3.5 | 0.17 | 0.85 | 0.79 | 94 | 997.6 |
| 20260507055803 | 67 | 246 | 0.9 | 3.5 | 0.17 | 0.85 | 0.79 | 94 | 997.7 |
| 20260507055703 | 67 | 246 | 1.7 | 3.5 | 0.17 | 0.85 | 0.79 | 94 | 997.8 |
| 20260507055604 | 67 | 244 | 1.7 | 3.5 | 0.17 | 0.85 | 0.79 | 94 | 997.8 |
| 20260507055503 | 67 | 256 | 0.9 | 1.7 | 0.17 | 0.85 | 0.79 | 94 | 997.8 |
| 20260507055418 | 67 | 270 | 0.9 | 1.7 | 0.17 | 0.85 | 0.79 | 94 | 997.8 |
| 20260507055406 | 67 | 0 | 0.0 | 0.0 | 0.17 | 0.85 | 0.79 | 94 | 997.9 |
| 20260507055317 | 67 | 0 | 0.0 | 0.0 | 0.17 | 0.85 | 0.79 | 93 | 997.7 |
| 20260507055004 | 67 | 258 | 0.0 | 1.7 | 0.17 | 0.85 | 0.79 | 93 | 997.8 |
| 20260507054907 | 67 | 258 | 0.0 | 1.7 | 0.17 | 0.85 | 0.79 | 93 | 997.8 |
| 20260507054806 | 67 | 255 | 0.0 | 1.7 | 0.17 | 0.85 | 0.79 | 93 | 998.1 |
| 20260507054703 | 67 | 255 | 0.0 | 1.7 | 0.17 | 0.85 | 0.79 | 93 | 997.9 |
| 20260507054603 | 67 | 247 | 0.0 | 1.7 | 0.17 | 0.85 | 0.79 | 93 | 998.1 |
| 20260507054503 | 67 | 236 | 0.0 | 1.7 | 0.17 | 0.85 | 0.79 | 93 | 998.0 |
| 20260507054414 | 67 | 221 | 0.0 | 3.5 | 0.17 | 0.85 | 0.79 | 93 | 997.9 |
| 20260507054405 | 67 | 218 | 0.0 | 3.5 | 0.17 | 0.85 | 0.79 | 93 | 997.9 |
| 20260507054303 | 67 | 210 | 0.0 | 3.5 | 0.17 | 0.85 | 0.79 | 93 | 997.9 |
| 20260507054105 | 67 | 227 | 0.0 | 3.5 | 0.17 | 0.85 | 0.79 | 92 | 998.1 |
| 20260507054005 | 67 | 232 | 0.9 | 3.5 | 0.17 | 0.85 | 0.79 | 92 | 998.1 |
| 20260507053917 | 67 | 233 | 1.7 | 5.2 | 0.17 | 0.85 | 0.79 | 92 | 998.2 |
| 20260507053804 | 67 | 234 | 2.6 | 5.2 | 0.17 | 0.85 | 0.79 | 92 | 998.5 |
| 20260507053605 | 67 | 224 | 0.9 | 5.2 | 0.17 | 0.85 | 0.79 | 92 | 998.4 |
| 20260507053504 | 67 | 226 | 1.7 | 5.2 | 0.17 | 0.84 | 0.78 | 92 | 998.5 |
| 20260507053415 | 67 | 225 | 3.5 | 5.2 | 0.15 | 0.83 | 0.78 | 92 | 998.4 |
| 20260507053404 | 68 | 228 | 1.7 | 7.0 | 0.15 | 0.83 | 0.77 | 92 | 998.6 |
| 20260507053306 | 68 | 232 | 1.7 | 7.0 | 0.13 | 0.80 | 0.74 | 91 | 998.4 |
| 20260507053104 | 68 | 239 | 1.7 | 7.0 | 0.09 | 0.74 | 0.71 | 91 | 998.7 |
| 20260507053004 | 68 | 231 | 3.5 | 7.0 | 0.07 | 0.71 | 0.65 | 91 | 998.6 |
| 20260507052913 | 68 | 226 | 3.5 | 7.0 | 0.07 | 0.71 | 0.65 | 91 | 998.6 |
| 20260507052905 | 68 | 223 | 3.5 | 7.0 | 0.07 | 0.71 | 0.65 | 91 | 998.6 |
| 20260507052804 | 68 | 217 | 2.6 | 6.1 | 0.07 | 0.71 | 0.65 | 91 | 998.6 |
| 20260507052604 | 68 | 208 | 3.5 | 6.1 | 0.07 | 0.71 | 0.65 | 91 | 998.1 |
| 20260507052504 | 68 | 212 | 2.6 | 6.1 | 0.07 | 0.71 | 0.65 | 92 | 998.1 |
| 20260507052407 | 68 | 217 | 2.6 | 6.1 | 0.07 | 0.71 | 0.65 | 91 | 997.5 |
| 20260507052306 | 68 | 226 | 3.5 | 6.1 | 0.07 | 0.71 | 0.65 | 92 | 997.7 |
| 20260507052204 | 68 | 231 | 3.5 | 6.1 | 0.07 | 0.71 | 0.65 | 92 | 997.6 |
| 20260507052104 | 69 | 232 | 2.6 | 5.2 | 0.07 | 0.71 | 0.65 | 92 | 997.7 |
| 20260507052015 | 69 | 209 | 0.9 | 3.5 | 0.07 | 0.71 | 0.65 | 91 | 997.6 |
| 20260507052004 | 69 | 201 | 0.9 | 3.5 | 0.07 | 0.71 | 0.65 | 91 | 997.6 |
| 20260507051906 | 69 | 198 | 1.7 | 5.2 | 0.11 | 0.71 | 0.65 | 91 | 997.9 |
| 20260507051704 | 69 | 182 | 0.9 | 6.1 | 0.14 | 0.70 | 0.64 | 91 | 997.6 |
| 20260507051605 | 69 | 192 | 1.7 | 6.1 | 0.14 | 0.69 | 0.63 | 91 | 997.8 |
| 20260507051504 | 68 | 204 | 3.5 | 6.1 | 0.18 | 0.69 | 0.63 | 91 | 997.8 |
| 20260507051403 | 68 | 212 | 1.7 | 6.1 | 0.20 | 0.69 | 0.63 | 91 | 997.8 |
| 20260507051305 | 68 | 220 | 3.5 | 6.1 | 0.21 | 0.69 | 0.63 | 91 | 998.0 |
| 20260507051203 | 68 | 235 | 1.7 | 6.1 | 0.24 | 0.69 | 0.63 | 91 | 998.1 |
| 20260507051103 | 68 | 247 | 3.5 | 7.8 | 0.24 | 0.69 | 0.63 | 91 | 997.9 |
| 20260507051004 | 68 | 260 | 1.7 | 7.8 | 0.26 | 0.69 | 0.63 | 91 | 998.3 |
| 20260507050904 | 68 | 266 | 2.6 | 7.8 | 0.28 | 0.69 | 0.63 | 91 | 997.9 |
| 20260507050804 | 68 | 265 | 1.7 | 7.8 | 0.31 | 0.69 | 0.63 | 91 | 997.9 |
| 20260507050704 | 68 | 261 | 1.7 | 7.8 | 0.33 | 0.69 | 0.63 | 91 | 998.0 |
| 20260507050604 | 68 | 253 | 3.5 | 7.8 | 0.34 | 0.69 | 0.63 | 92 | 998.0 |
| 20260507050504 | 68 | 243 | 3.5 | 7.8 | 0.37 | 0.69 | 0.63 | 92 | 997.9 |
| 20260507050404 | 68 | 234 | 3.5 | 7.8 | 0.37 | 0.69 | 0.63 | 92 | 998.1 |
| 20260507050303 | 68 | 238 | 1.7 | 7.8 | 0.38 | 0.69 | 0.63 | 92 | 998.1 |
| 20260507050204 | 68 | 248 | 3.5 | 7.8 | 0.38 | 0.69 | 0.63 | 92 | 998.1 |
| 20260507050005 | 68 | 274 | 5.2 | 7.8 | 0.39 | 0.69 | 0.63 | 93 | 998.4 |
| 20260507045905 | 69 | 283 | 2.6 | 5.2 | 0.39 | 0.69 | 0.63 | 93 | 998.5 |
| 20260507045804 | 68 | 283 | 1.7 | 5.2 | 0.39 | 0.69 | 0.63 | 93 | 998.3 |
| 20260507045713 | 68 | 273 | 0.9 | 5.2 | 0.40 | 0.69 | 0.63 | 93 | 998.5 |
| 20260507045605 | 68 | 263 | 1.7 | 7.0 | 0.41 | 0.69 | 0.63 | 93 | 998.3 |
| 20260507045419 | 69 | 255 | 2.6 | 7.0 | 0.43 | 0.69 | 0.63 | 93 | 998.4 |
| 20260507045403 | 69 | 253 | 1.7 | 7.0 | 0.43 | 0.69 | 0.63 | 93 | 998.3 |
| 20260507045306 | 69 | 251 | 1.7 | 7.0 | 0.44 | 0.69 | 0.63 | 93 | 998.4 |
| 20260507045120 | 69 | 264 | 3.5 | 12.2 | 0.47 | 0.69 | 0.63 | 93 | 998.7 |
| 20260507045004 | 69 | 262 | 2.6 | 12.2 | 0.47 | 0.69 | 0.63 | 93 | 998.7 |
| 20260507044804 | 69 | 260 | 3.5 | 12.2 | 0.48 | 0.69 | 0.63 | 93 | 998.8 |
| 20260507044703 | 69 | 251 | 6.1 | 12.2 | 0.48 | 0.69 | 0.63 | 94 | 998.6 |
| 20260507044604 | 69 | 246 | 5.2 | 9.6 | 0.48 | 0.69 | 0.63 | 94 | 998.3 |
| 20260507044521 | 69 | 251 | 5.2 | 11.3 | 0.50 | 0.69 | 0.63 | 94 | 998.1 |
| 20260507044505 | 69 | 253 | 5.2 | 11.3 | 0.50 | 0.69 | 0.63 | 94 | 998.1 |
| 20260507044403 | 69 | 256 | 3.5 | 11.3 | 0.50 | 0.69 | 0.63 | 94 | 997.6 |
| 20260507044203 | 69 | 264 | 3.5 | 11.3 | 0.56 | 0.69 | 0.63 | 94 | 996.9 |
| 20260507044103 | 69 | 257 | 4.3 | 11.3 | 0.57 | 0.69 | 0.63 | 94 | 996.8 |
| 20260507044004 | 70 | 246 | 6.1 | 11.3 | 0.57 | 0.69 | 0.63 | 95 | 997.1 |
| 20260507043907 | 70 | 238 | 7.0 | 11.3 | 0.59 | 0.69 | 0.63 | 95 | 997.0 |
| 20260507043804 | 70 | 231 | 5.2 | 9.6 | 0.60 | 0.69 | 0.63 | 95 | 997.1 |
| 20260507043604 | 70 | 228 | 2.6 | 7.0 | 0.61 | 0.69 | 0.63 | 95 | 997.5 |
| 20260507043506 | 69 | 235 | 4.3 | 7.0 | 0.61 | 0.67 | 0.63 | 95 | 997.5 |
| 20260507043404 | 70 | 235 | 2.6 | 7.8 | 0.61 | 0.67 | 0.61 | 95 | 997.5 |
| 20260507043303 | 70 | 249 | 3.5 | 9.6 | 0.61 | 0.67 | 0.61 | 95 | 997.6 |
| 20260507043204 | 70 | 240 | 3.5 | 9.6 | 0.61 | 0.67 | 0.61 | 95 | 997.8 |
| 20260507043105 | 69 | 241 | 3.5 | 11.3 | 0.59 | 0.65 | 0.60 | 95 | 997.6 |
| 20260507043004 | 69 | 241 | 3.5 | 14.8 | 0.58 | 0.64 | 0.58 | 95 | 997.7 |
| 20260507042904 | 69 | 246 | 4.3 | 14.8 | 0.58 | 0.64 | 0.58 | 95 | 997.8 |
| 20260507042805 | 69 | 254 | 4.3 | 15.6 | 0.58 | 0.64 | 0.58 | 95 | 998.0 |
| 20260507042703 | 69 | 257 | 5.2 | 15.6 | 0.58 | 0.64 | 0.58 | 95 | 997.8 |
| 20260507042605 | 69 | 260 | 7.0 | 15.6 | 0.58 | 0.64 | 0.58 | 95 | 997.7 |
| 20260507042503 | 69 | 265 | 9.6 | 15.6 | 0.58 | 0.64 | 0.58 | 95 | 997.7 |
| 20260507042404 | 69 | 266 | 7.0 | 15.6 | 0.58 | 0.64 | 0.58 | 95 | 997.2 |
| 20260507042306 | 69 | 262 | 8.7 | 15.6 | 0.58 | 0.64 | 0.58 | 95 | 997.4 |
| 20260507042205 | 69 | 260 | 9.6 | 17.4 | 0.58 | 0.64 | 0.58 | 95 | 997.4 |
| 20260507042103 | 69 | 256 | 9.6 | 20.0 | 0.58 | 0.64 | 0.58 | 95 | 997.2 |
| 20260507042004 | 69 | 242 | 8.7 | 33.0 | 0.58 | 0.64 | 0.58 | 95 | 997.1 |
| 20260507041905 | 69 | 242 | 8.7 | 33.0 | 0.54 | 0.60 | 0.58 | 95 | 997.2 |
| 20260507041803 | 69 | 240 | 10.4 | 33.0 | 0.52 | 0.58 | 0.52 | 95 | 997.0 |
| 20260507041703 | 69 | 245 | 10.4 | 33.0 | 0.50 | 0.56 | 0.50 | 95 | 996.9 |
| 20260507041610 | 70 | 243 | 12.2 | 33.0 | 0.48 | 0.54 | 0.48 | 95 | 996.7 |
| 20260507041504 | 70 | 254 | 13.0 | 33.0 | 0.45 | 0.51 | 0.46 | 95 | 996.9 |
| 20260507041403 | 70 | 263 | 9.6 | 21.7 | 0.43 | 0.48 | 0.43 | 95 | 996.1 |
| 20260507041204 | 70 | 247 | 7.0 | 19.1 | 0.39 | 0.45 | 0.39 | 95 | 996.6 |
| 20260507041006 | 70 | 288 | 11.3 | 19.1 | 0.37 | 0.43 | 0.37 | 94 | 997.0 |
| 20260507040904 | 70 | 264 | 8.7 | 18.2 | 0.34 | 0.40 | 0.34 | 94 | 997.1 |
| 20260507040812 | 70 | 261 | 7.0 | 13.0 | 0.32 | 0.38 | 0.32 | 94 | 997.3 |
| 20260507040803 | 70 | 262 | 7.0 | 13.0 | 0.32 | 0.38 | 0.32 | 94 | 997.3 |
| 20260507040707 | 70 | 262 | 6.1 | 11.3 | 0.30 | 0.35 | 0.31 | 94 | 997.2 |
| 20260507040519 | 70 | 281 | 6.1 | 11.3 | 0.26 | 0.32 | 0.26 | 94 | 997.4 |
| 20260507040505 | 70 | 285 | 6.1 | 11.3 | 0.26 | 0.32 | 0.26 | 94 | 997.4 |
| 20260507040403 | 70 | 289 | 6.1 | 11.3 | 0.26 | 0.32 | 0.26 | 94 | 997.2 |
| 20260507040204 | 70 | 308 | 3.5 | 12.2 | 0.25 | 0.31 | 0.25 | 93 | 996.4 |
| 20260507040104 | 70 | 294 | 6.1 | 12.2 | 0.24 | 0.30 | 0.24 | 93 | 996.4 |
| 20260507040005 | 70 | 276 | 4.3 | 13.9 | 0.24 | 0.30 | 0.24 | 93 | 996.3 |
| 20260507035906 | 70 | 272 | 4.3 | 13.9 | 0.24 | 0.30 | 0.24 | 93 | 996.0 |
| 20260507035804 | 70 | 284 | 5.2 | 13.9 | 0.24 | 0.30 | 0.24 | 93 | 996.0 |
| 20260507035717 | 71 | 281 | 4.3 | 13.9 | 0.22 | 0.28 | 0.22 | 93 | 995.9 |
| 20260507035704 | 71 | 277 | 4.3 | 13.9 | 0.22 | 0.28 | 0.22 | 93 | 995.9 |
| 20260507035604 | 71 | 271 | 7.0 | 13.9 | 0.21 | 0.27 | 0.21 | 93 | 996.1 |
| 20260507035404 | 72 | 293 | 7.8 | 13.9 | 0.20 | 0.26 | 0.20 | 93 | 996.5 |
| 20260507035306 | 72 | 286 | 7.0 | 12.2 | 0.19 | 0.25 | 0.19 | 92 | 996.7 |
| 20260507035205 | 73 | 292 | 7.0 | 12.2 | 0.18 | 0.24 | 0.18 | 92 | 996.3 |
| 20260507035104 | 73 | 303 | 7.0 | 12.2 | 0.15 | 0.21 | 0.18 | 92 | 996.5 |
| 20260507035005 | 74 | 304 | 6.1 | 9.6 | 0.15 | 0.21 | 0.15 | 92 | 996.2 |
| 20260507034806 | 74 | 300 | 4.3 | 9.6 | 0.14 | 0.20 | 0.14 | 92 | 996.1 |
| 20260507034705 | 74 | 306 | 5.2 | 9.6 | 0.14 | 0.20 | 0.14 | 92 | 996.2 |
| 20260507034504 | 74 | 302 | 1.7 | 9.6 | 0.13 | 0.19 | 0.13 | 91 | 995.9 |
| 20260507034404 | 74 | 306 | 3.5 | 9.6 | 0.13 | 0.19 | 0.13 | 91 | 996.2 |
| 20260507034304 | 74 | 308 | 3.5 | 9.6 | 0.08 | 0.14 | 0.11 | 90 | 996.3 |
| 20260507034216 | 75 | 304 | 3.5 | 9.6 | 0.07 | 0.13 | 0.08 | 90 | 996.3 |
| 20260507034204 | 75 | 305 | 2.6 | 9.6 | 0.07 | 0.13 | 0.07 | 90 | 995.9 |
| 20260507034104 | 75 | 312 | 3.5 | 9.6 | 0.06 | 0.12 | 0.06 | 89 | 995.9 |
| 20260507033904 | 75 | 323 | 4.3 | 9.6 | 0.04 | 0.09 | 0.05 | 88 | 995.9 |
| 20260507033815 | 76 | 325 | 3.5 | 9.6 | 0.02 | 0.08 | 0.04 | 88 | 996.1 |
| 20260507033805 | 76 | 325 | 2.6 | 9.6 | 0.02 | 0.08 | 0.02 | 88 | 996.4 |
| 20260507033505 | 76 | 324 | 3.5 | 7.0 | 0.00 | 0.06 | 0.00 | 87 | 996.0 |
| 20260507033405 | 76 | 321 | 3.5 | 6.1 | 0.00 | 0.06 | 0.00 | 86 | 995.8 |
| 20260507033303 | 76 | 321 | 4.3 | 6.1 | 0.00 | 0.06 | 0.00 | 86 | 996.0 |
| 20260507033206 | 77 | 324 | 1.7 | 7.0 | 0.00 | 0.06 | 0.00 | 85 | 996.1 |
| 20260507033115 | 77 | 332 | 2.6 | 9.6 | 0.00 | 0.06 | 0.00 | 85 | 996.3 |
| 20260507033014 | 77 | 334 | 3.5 | 9.6 | 0.00 | 0.06 | 0.00 | 85 | 996.4 |
| 20260507033003 | 77 | 337 | 3.5 | 9.6 | 0.00 | 0.06 | 0.00 | 85 | 996.3 |
| 20260507032704 | 77 | 351 | 3.5 | 11.3 | 0.00 | 0.06 | 0.00 | 84 | 995.8 |
| 20260507032603 | 77 | 347 | 3.5 | 11.3 | 0.00 | 0.06 | 0.00 | 84 | 995.6 |
| 20260507032506 | 77 | 344 | 3.5 | 11.3 | 0.00 | 0.06 | 0.00 | 84 | 995.6 |
| 20260507032403 | 77 | 340 | 1.7 | 11.3 | 0.00 | 0.06 | 0.00 | 84 | 995.6 |
| 20260507032306 | 77 | 337 | 3.5 | 11.3 | 0.00 | 0.06 | 0.00 | 84 | 995.7 |
| 20260507032204 | 77 | 336 | 2.6 | 7.0 | 0.00 | 0.06 | 0.00 | 84 | 995.9 |
| 20260507032104 | 77 | 327 | 3.5 | 7.8 | 0.00 | 0.06 | 0.00 | 84 | 996.1 |
| 20260507031903 | 77 | 329 | 4.3 | 7.8 | 0.00 | 0.06 | 0.00 | 84 | 996.5 |
| 20260507031817 | 77 | 331 | 3.5 | 7.8 | 0.00 | 0.06 | 0.00 | 84 | 996.1 |
| 20260507031804 | 77 | 332 | 3.5 | 7.8 | 0.00 | 0.06 | 0.00 | 84 | 996.2 |
| 20260507031716 | 77 | 325 | 3.5 | 7.8 | 0.00 | 0.06 | 0.00 | 84 | 996.2 |
| 20260507031703 | 77 | 328 | 3.5 | 7.8 | 0.00 | 0.06 | 0.00 | 84 | 996.2 |
| 20260507031403 | 77 | 347 | 2.6 | 6.1 | 0.00 | 0.06 | 0.00 | 84 | 996.4 |
| 20260507031315 | 77 | 350 | 2.6 | 6.1 | 0.00 | 0.06 | 0.00 | 84 | 996.2 |
| 20260507031304 | 77 | 351 | 2.6 | 6.1 | 0.00 | 0.06 | 0.00 | 84 | 996.2 |
| 20260507031214 | 77 | 356 | 1.7 | 5.2 | 0.00 | 0.06 | 0.00 | 84 | 996.1 |
| 20260507031205 | 77 | 358 | 1.7 | 5.2 | 0.00 | 0.06 | 0.00 | 84 | 996.1 |
| 20260507031016 | 77 | 355 | 1.7 | 5.2 | 0.00 | 0.06 | 0.00 | 84 | 996.0 |
| 20260507030905 | 77 | 360 | 3.5 | 5.2 | 0.00 | 0.06 | 0.00 | 84 | 995.7 |
| 20260507030704 | 77 | 360 | 2.6 | 5.2 | 0.00 | 0.06 | 0.00 | 84 | 995.6 |
| 20260507030604 | 77 | 355 | 2.6 | 6.1 | 0.00 | 0.06 | 0.00 | 84 | 995.8 |
| 20260507030504 | 77 | 346 | 3.5 | 6.1 | 0.00 | 0.06 | 0.00 | 84 | 995.8 |
| 20260507030403 | 77 | 338 | 1.7 | 6.1 | 0.00 | 0.06 | 0.00 | 84 | 996.0 |
| 20260507030305 | 77 | 336 | 1.7 | 6.1 | 0.00 | 0.06 | 0.00 | 84 | 996.0 |
| 20260507030220 | 77 | 331 | 3.5 | 6.1 | 0.00 | 0.06 | 0.00 | 84 | 996.3 |
| 20260507030203 | 77 | 327 | 2.6 | 6.1 | 0.00 | 0.06 | 0.00 | 84 | 996.5 |
| 20260507030104 | 77 | 327 | 3.5 | 7.0 | 0.00 | 0.06 | 0.00 | 84 | 996.3 |
| 20260507025903 | 77 | 340 | 2.6 | 7.0 | 0.00 | 0.06 | 0.06 | 84 | 996.1 |
| 20260507025804 | 77 | 344 | 2.6 | 7.0 | 0.00 | 0.06 | 0.06 | 84 | 996.2 |
| 20260507025718 | 77 | 351 | 4.3 | 7.0 | 0.00 | 0.06 | 0.06 | 84 | 996.2 |
| 20260507025704 | 77 | 355 | 4.3 | 7.0 | 0.00 | 0.06 | 0.06 | 84 | 996.2 |
| 20260507025605 | 77 | 4 | 3.5 | 7.0 | 0.00 | 0.06 | 0.06 | 84 | 996.4 |
| 20260507025306 | 77 | 355 | 1.7 | 3.5 | 0.00 | 0.06 | 0.06 | 83 | 996.4 |
| 20260507025203 | 77 | 356 | 1.7 | 6.1 | 0.00 | 0.06 | 0.06 | 83 | 996.5 |
| 20260507025107 | 78 | 353 | 1.7 | 6.1 | 0.00 | 0.06 | 0.06 | 83 | 996.3 |
| 20260507025018 | 78 | 353 | 1.7 | 6.1 | 0.00 | 0.06 | 0.06 | 83 | 996.7 |
| 20260507025005 | 78 | 351 | 1.7 | 6.1 | 0.00 | 0.06 | 0.06 | 83 | 996.7 |
| 20260507024904 | 78 | 347 | 2.6 | 6.1 | 0.00 | 0.06 | 0.06 | 83 | 996.5 |
| 20260507024617 | 78 | 351 | 1.7 | 5.2 | 0.00 | 0.06 | 0.06 | 82 | 996.7 |
| 20260507024605 | 78 | 351 | 1.7 | 5.2 | 0.00 | 0.06 | 0.06 | 82 | 996.6 |
| 20260507024507 | 78 | 350 | 2.6 | 5.2 | 0.00 | 0.06 | 0.06 | 82 | 996.7 |
| 20260507024304 | 78 | 347 | 1.7 | 5.2 | 0.00 | 0.06 | 0.06 | 82 | 996.6 |
| 20260507024205 | 78 | 348 | 3.5 | 5.2 | 0.00 | 0.06 | 0.06 | 82 | 996.7 |
| 20260507024104 | 78 | 341 | 2.6 | 5.2 | 0.00 | 0.06 | 0.06 | 82 | 996.5 |
| 20260507024005 | 78 | 343 | 1.7 | 5.2 | 0.00 | 0.06 | 0.06 | 82 | 997.0 |
| 20260507023904 | 78 | 345 | 1.7 | 5.2 | 0.00 | 0.06 | 0.06 | 82 | 996.9 |
| 20260507023704 | 78 | 4 | 1.7 | 6.1 | 0.00 | 0.06 | 0.06 | 82 | 997.1 |
| 20260507023603 | 78 | 6 | 3.5 | 6.1 | 0.00 | 0.06 | 0.06 | 82 | 997.3 |
| 20260507023503 | 78 | 7 | 3.5 | 7.0 | 0.00 | 0.06 | 0.06 | 82 | 997.0 |
| 20260507023404 | 78 | 5 | 2.6 | 7.0 | 0.00 | 0.06 | 0.06 | 82 | 997.1 |
| 20260507023314 | 78 | 5 | 2.6 | 7.0 | 0.00 | 0.06 | 0.06 | 82 | 997.1 |
| 20260507023304 | 78 | 4 | 2.6 | 7.0 | 0.00 | 0.06 | 0.06 | 82 | 997.1 |
| 20260507023204 | 78 | 1 | 3.5 | 7.0 | 0.00 | 0.06 | 0.06 | 82 | 997.1 |
| 20260507023015 | 78 | 1 | 5.2 | 7.0 | 0.00 | 0.06 | 0.06 | 82 | 997.5 |
| 20260507023003 | 78 | 1 | 2.6 | 5.2 | 0.00 | 0.06 | 0.06 | 83 | 997.4 |
| 20260507022918 | 78 | 3 | 2.6 | 7.0 | 0.00 | 0.06 | 0.06 | 83 | 997.6 |
| 20260507022904 | 78 | 359 | 2.6 | 7.0 | 0.00 | 0.06 | 0.06 | 83 | 997.6 |
| 20260507022604 | 78 | 352 | 3.5 | 7.0 | 0.00 | 0.06 | 0.06 | 83 | 997.3 |
| 20260507022503 | 78 | 351 | 3.5 | 7.0 | 0.00 | 0.06 | 0.06 | 83 | 997.3 |
| 20260507022405 | 78 | 355 | 3.5 | 7.0 | 0.00 | 0.06 | 0.06 | 83 | 997.2 |
| 20260507022306 | 77 | 1 | 1.7 | 7.0 | 0.00 | 0.06 | 0.06 | 83 | 997.3 |
| 20260507022204 | 77 | 357 | 1.7 | 7.0 | 0.00 | 0.06 | 0.06 | 83 | 997.2 |
| 20260507022004 | 77 | 1 | 3.5 | 7.0 | 0.00 | 0.06 | 0.06 | 84 | 997.4 |
| 20260507021903 | 77 | 5 | 4.3 | 7.0 | 0.00 | 0.06 | 0.06 | 84 | 997.4 |
| 20260507021803 | 77 | 355 | 1.7 | 5.2 | 0.00 | 0.06 | 0.06 | 84 | 997.7 |
| 20260507021604 | 77 | 357 | 2.6 | 5.2 | 0.00 | 0.06 | 0.06 | 84 | 997.7 |
| 20260507021503 | 77 | 357 | 1.7 | 5.2 | 0.00 | 0.06 | 0.06 | 84 | 997.7 |
| 20260507021404 | 77 | 358 | 2.6 | 6.1 | 0.00 | 0.06 | 0.06 | 84 | 997.7 |
| 20260507021206 | 77 | 6 | 1.7 | 6.1 | 0.00 | 0.06 | 0.06 | 84 | 997.8 |
| 20260507021104 | 77 | 6 | 2.6 | 6.1 | 0.00 | 0.06 | 0.06 | 84 | 997.5 |
| 20260507021005 | 77 | 6 | 2.6 | 6.1 | 0.00 | 0.06 | 0.06 | 85 | 997.8 |
| 20260507020904 | 77 | 4 | 1.7 | 5.2 | 0.00 | 0.06 | 0.06 | 85 | 997.6 |
| 20260507020807 | 77 | 4 | 2.6 | 5.2 | 0.00 | 0.06 | 0.06 | 85 | 997.6 |
| 20260507020704 | 77 | 4 | 2.6 | 5.2 | 0.00 | 0.06 | 0.06 | 85 | 997.7 |
| 20260507020604 | 77 | 12 | 2.6 | 5.2 | 0.00 | 0.06 | 0.06 | 85 | 997.5 |
| 20260507020505 | 77 | 5 | 1.7 | 5.2 | 0.00 | 0.06 | 0.06 | 85 | 997.7 |
| 20260507020405 | 77 | 360 | 2.6 | 5.2 | 0.00 | 0.06 | 0.06 | 84 | 997.8 |
| 20260507020305 | 77 | 3 | 2.6 | 5.2 | 0.00 | 0.06 | 0.06 | 84 | 997.6 |
| 20260507020204 | 77 | 4 | 2.6 | 5.2 | 0.00 | 0.06 | 0.06 | 84 | 997.7 |
| 20260507020105 | 77 | 1 | 3.5 | 5.2 | 0.00 | 0.06 | 0.06 | 84 | 997.9 |
| 20260507020004 | 77 | 11 | 2.6 | 5.2 | 0.00 | 0.06 | 0.06 | 84 | 997.8 |
| 20260507015904 | 77 | 19 | 2.6 | 3.5 | 0.00 | 0.06 | 0.06 | 84 | 997.9 |
| 20260507015815 | 77 | 20 | 2.6 | 3.5 | 0.00 | 0.06 | 0.06 | 84 | 997.7 |
| 20260507015805 | 77 | 20 | 1.7 | 3.5 | 0.00 | 0.06 | 0.06 | 84 | 997.7 |
| 20260507015705 | 77 | 21 | 1.7 | 3.5 | 0.00 | 0.06 | 0.06 | 84 | 997.8 |
| 20260507015503 | 77 | 13 | 1.7 | 3.5 | 0.00 | 0.06 | 0.06 | 84 | 997.8 |
| 20260507015403 | 77 | 13 | 1.7 | 3.5 | 0.00 | 0.06 | 0.06 | 84 | 997.8 |
| 20260507015318 | 77 | 12 | 1.7 | 3.5 | 0.00 | 0.06 | 0.06 | 84 | 997.9 |
| 20260507015306 | 77 | 10 | 1.7 | 3.5 | 0.00 | 0.06 | 0.06 | 84 | 997.9 |
| 20260507015204 | 77 | 9 | 2.6 | 3.5 | 0.00 | 0.06 | 0.06 | 84 | 997.8 |
| 20260507015004 | 77 | 8 | 0.9 | 3.5 | 0.00 | 0.06 | 0.06 | 84 | 998.2 |
| 20260507014903 | 77 | 7 | 0.9 | 3.5 | 0.00 | 0.06 | 0.06 | 84 | 998.1 |
| 20260507014805 | 77 | 4 | 1.7 | 3.5 | 0.00 | 0.06 | 0.06 | 84 | 997.7 |
| 20260507014704 | 77 | 3 | 1.7 | 3.5 | 0.00 | 0.06 | 0.06 | 84 | 997.8 |
| 20260507014516 | 77 | 5 | 1.7 | 6.1 | 0.00 | 0.06 | 0.06 | 85 | 997.5 |
| 20260507014503 | 77 | 7 | 1.7 | 6.1 | 0.00 | 0.06 | 0.06 | 85 | 997.5 |
| 20260507014407 | 77 | 7 | 1.7 | 7.8 | 0.00 | 0.06 | 0.06 | 85 | 997.7 |
| 20260507014203 | 77 | 7 | 1.7 | 7.8 | 0.00 | 0.06 | 0.06 | 85 | 997.8 |
| 20260507014103 | 77 | 6 | 1.7 | 7.8 | 0.00 | 0.06 | 0.06 | 85 | 997.9 |
| 20260507014004 | 77 | 1 | 3.5 | 7.8 | 0.00 | 0.06 | 0.06 | 86 | 997.9 |
| 20260507013906 | 76 | 360 | 4.3 | 7.8 | 0.00 | 0.06 | 0.06 | 86 | 998.2 |
| 20260507013803 | 76 | 355 | 3.5 | 6.1 | 0.00 | 0.06 | 0.06 | 87 | 997.9 |
| 20260507013703 | 76 | 359 | 2.6 | 6.1 | 0.00 | 0.06 | 0.06 | 87 | 997.9 |
| 20260507013614 | 76 | 354 | 3.5 | 6.1 | 0.00 | 0.06 | 0.06 | 87 | 998.0 |
| 20260507013604 | 76 | 353 | 3.5 | 6.1 | 0.00 | 0.06 | 0.06 | 87 | 998.0 |
| 20260507013504 | 76 | 355 | 1.7 | 6.1 | 0.00 | 0.06 | 0.06 | 87 | 997.8 |
| 20260507013203 | 76 | 3 | 3.5 | 6.1 | 0.00 | 0.06 | 0.06 | 87 | 997.7 |
| 20260507013104 | 76 | 6 | 2.6 | 5.2 | 0.00 | 0.06 | 0.06 | 87 | 997.7 |
| 20260507013004 | 76 | 3 | 1.7 | 5.2 | 0.00 | 0.06 | 0.06 | 87 | 997.9 |
| 20260507012904 | 76 | 360 | 2.6 | 5.2 | 0.00 | 0.06 | 0.06 | 87 | 997.7 |
| 20260507012805 | 76 | 355 | 2.6 | 5.2 | 0.00 | 0.06 | 0.06 | 87 | 997.5 |
| 20260507012703 | 76 | 357 | 1.7 | 5.2 | 0.00 | 0.06 | 0.06 | 87 | 997.8 |
| 20260507012604 | 76 | 360 | 2.6 | 5.2 | 0.00 | 0.06 | 0.06 | 87 | 997.8 |
| 20260507012505 | 76 | 3 | 2.6 | 5.2 | 0.00 | 0.06 | 0.06 | 87 | 997.8 |
| 20260507012403 | 76 | 12 | 1.7 | 5.2 | 0.00 | 0.06 | 0.06 | 87 | 997.5 |
| 20260507012306 | 76 | 21 | 2.6 | 5.2 | 0.00 | 0.06 | 0.06 | 87 | 997.9 |
| 20260507012205 | 76 | 22 | 2.6 | 3.5 | 0.00 | 0.06 | 0.06 | 86 | 998.0 |
| 20260507012104 | 76 | 22 | 1.7 | 3.5 | 0.00 | 0.06 | 0.06 | 86 | 997.6 |
| 20260507012005 | 76 | 26 | 1.7 | 3.5 | 0.00 | 0.06 | 0.06 | 86 | 997.8 |
| 20260507011907 | 76 | 25 | 1.7 | 3.5 | 0.00 | 0.06 | 0.06 | 86 | 998.0 |
| 20260507011805 | 76 | 23 | 1.7 | 3.5 | 0.00 | 0.06 | 0.06 | 86 | 998.0 |
| 20260507011704 | 76 | 17 | 1.7 | 5.2 | 0.00 | 0.06 | 0.06 | 86 | 997.9 |
| 20260507011621 | 76 | 13 | 1.7 | 5.2 | 0.00 | 0.06 | 0.06 | 86 | 998.0 |
| 20260507011604 | 76 | 14 | 1.7 | 5.2 | 0.00 | 0.06 | 0.06 | 86 | 998.0 |
| 20260507011504 | 76 | 15 | 1.7 | 5.2 | 0.00 | 0.06 | 0.06 | 86 | 998.0 |
| 20260507011304 | 77 | 359 | 1.7 | 6.1 | 0.00 | 0.06 | 0.06 | 85 | 998.2 |
| 20260507011209 | 77 | 354 | 2.6 | 6.1 | 0.00 | 0.06 | 0.06 | 85 | 997.7 |
| 20260507011004 | 77 | 353 | 2.6 | 6.1 | 0.00 | 0.06 | 0.06 | 85 | 997.9 |
| 20260507010904 | 77 | 351 | 3.5 | 6.1 | 0.00 | 0.06 | 0.06 | 85 | 997.9 |
| 20260507010804 | 77 | 354 | 3.5 | 6.1 | 0.00 | 0.06 | 0.06 | 85 | 997.6 |
| 20260507010706 | 77 | 350 | 3.5 | 6.1 | 0.00 | 0.06 | 0.06 | 85 | 997.9 |
| 20260507010617 | 77 | 346 | 3.5 | 6.1 | 0.00 | 0.06 | 0.06 | 85 | 997.9 |
| 20260507010604 | 77 | 344 | 3.5 | 6.1 | 0.00 | 0.06 | 0.06 | 84 | 997.9 |
| 20260507010505 | 77 | 350 | 3.5 | 6.1 | 0.00 | 0.06 | 0.06 | 84 | 997.8 |
| 20260507010304 | 78 | 352 | 2.6 | 6.1 | 0.00 | 0.06 | 0.06 | 84 | 998.0 |
| 20260507010216 | 78 | 357 | 2.6 | 6.1 | 0.00 | 0.06 | 0.06 | 84 | 997.9 |
| 20260507010205 | 78 | 360 | 2.6 | 6.1 | 0.00 | 0.06 | 0.06 | 84 | 998.0 |
| 20260507010120 | 78 | 360 | 3.5 | 6.1 | 0.00 | 0.06 | 0.06 | 84 | 998.2 |
| 20260507005803 | 78 | 6 | 2.6 | 5.2 | 0.00 | 0.06 | 0.06 | 83 | 998.3 |
| 20260507005707 | 78 | 12 | 2.6 | 5.2 | 0.00 | 0.06 | 0.06 | 83 | 998.2 |
| 20260507005603 | 78 | 12 | 1.7 | 5.2 | 0.00 | 0.06 | 0.06 | 84 | 998.3 |
| 20260507005404 | 78 | 13 | 1.7 | 5.2 | 0.00 | 0.06 | 0.06 | 83 | 998.6 |
| 20260507005306 | 78 | 9 | 1.7 | 5.2 | 0.00 | 0.06 | 0.06 | 83 | 998.7 |
| 20260507005205 | 78 | 7 | 2.6 | 5.2 | 0.00 | 0.06 | 0.06 | 83 | 998.8 |
| 20260507005104 | 78 | 8 | 2.6 | 5.2 | 0.00 | 0.06 | 0.06 | 83 | 998.5 |
| 20260507005003 | 78 | 359 | 2.6 | 3.5 | 0.00 | 0.06 | 0.06 | 84 | 998.7 |
| 20260507004903 | 78 | 356 | 2.6 | 3.5 | 0.00 | 0.06 | 0.06 | 84 | 998.8 |
| 20260507004803 | 78 | 351 | 1.7 | 3.5 | 0.00 | 0.06 | 0.06 | 84 | 998.6 |
| 20260507004704 | 78 | 343 | 1.7 | 3.5 | 0.00 | 0.06 | 0.06 | 84 | 998.6 |
| 20260507004605 | 78 | 338 | 1.7 | 3.5 | 0.00 | 0.06 | 0.06 | 84 | 999.0 |
| 20260507004403 | 78 | 343 | 1.7 | 3.5 | 0.00 | 0.06 | 0.06 | 84 | 998.9 |
| 20260507004303 | 78 | 344 | 1.7 | 3.5 | 0.00 | 0.06 | 0.06 | 84 | 999.0 |
| 20260507004203 | 78 | 348 | 1.7 | 3.5 | 0.00 | 0.06 | 0.06 | 84 | 998.9 |
| 20260507004105 | 78 | 360 | 1.7 | 1.7 | 0.00 | 0.06 | 0.06 | 84 | 999.2 |
| 20260507004005 | 78 | 360 | 0.9 | 1.7 | 0.00 | 0.06 | 0.06 | 85 | 999.0 |
| 20260507003904 | 78 | 360 | 0.0 | 1.7 | 0.00 | 0.06 | 0.06 | 85 | 999.1 |
| 20260507003803 | 78 | 360 | 0.0 | 1.7 | 0.00 | 0.06 | 0.06 | 85 | 998.9 |
| 20260507003605 | 78 | 360 | 0.0 | 1.7 | 0.00 | 0.06 | 0.06 | 85 | 999.0 |
| 20260507003505 | 78 | 360 | 0.0 | 1.7 | 0.00 | 0.06 | 0.06 | 85 | 999.2 |
| 20260507003404 | 78 | 360 | 0.0 | 1.7 | 0.00 | 0.06 | 0.06 | 85 | 999.0 |
| 20260507003303 | 78 | 0 | 0.0 | 0.0 | 0.00 | 0.06 | 0.06 | 85 | 998.9 |
| 20260507003203 | 78 | 0 | 0.0 | 0.0 | 0.00 | 0.06 | 0.06 | 85 | 999.3 |
| 20260507003106 | 77 | 0 | 0.0 | 0.0 | 0.00 | 0.06 | 0.06 | 85 | 998.8 |
| 20260507003016 | 77 | 0 | 0.0 | 0.0 | 0.00 | 0.06 | 0.06 | 85 | 998.8 |
| 20260507002708 | 77 | 0 | 0.0 | 0.0 | 0.00 | 0.06 | 0.06 | 85 | 998.8 |
| 20260507002604 | 77 | 22 | 0.0 | 1.7 | 0.00 | 0.06 | 0.06 | 85 | 998.9 |
| 20260507002504 | 77 | 22 | 0.0 | 1.7 | 0.00 | 0.06 | 0.06 | 85 | 998.8 |
| 20260507002405 | 77 | 30 | 0.0 | 1.7 | 0.00 | 0.06 | 0.06 | 85 | 998.9 |
| 20260507002306 | 77 | 30 | 0.0 | 1.7 | 0.00 | 0.06 | 0.06 | 85 | 998.5 |
| 20260507002204 | 77 | 27 | 0.0 | 1.7 | 0.00 | 0.06 | 0.06 | 85 | 998.7 |
| 20260507002004 | 77 | 26 | 0.0 | 1.7 | 0.00 | 0.06 | 0.06 | 85 | 998.7 |
| 20260507001904 | 77 | 19 | 0.9 | 1.7 | 0.00 | 0.06 | 0.06 | 85 | 998.7 |
| 20260507001718 | 77 | 12 | 0.0 | 1.7 | 0.00 | 0.06 | 0.06 | 85 | 998.4 |
| 20260507001704 | 77 | 11 | 0.0 | 1.7 | 0.00 | 0.06 | 0.06 | 85 | 998.4 |
| 20260507001605 | 77 | 10 | 0.9 | 1.7 | 0.00 | 0.06 | 0.06 | 85 | 998.5 |
| 20260507001405 | 77 | 13 | 0.0 | 1.7 | 0.00 | 0.06 | 0.06 | 85 | 998.6 |
| 20260507001304 | 77 | 11 | 0.0 | 1.7 | 0.00 | 0.06 | 0.06 | 85 | 998.4 |
| 20260507001204 | 77 | 11 | 0.9 | 1.7 | 0.00 | 0.06 | 0.06 | 85 | 998.5 |
| 20260507001106 | 77 | 9 | 0.9 | 1.7 | 0.00 | 0.06 | 0.06 | 85 | 998.5 |
| 20260507001004 | 77 | 8 | 0.9 | 1.7 | 0.00 | 0.06 | 0.06 | 84 | 998.4 |
| 20260507000916 | 77 | 8 | 0.9 | 1.7 | 0.00 | 0.06 | 0.06 | 84 | 998.5 |
| 20260507000903 | 77 | 10 | 0.9 | 1.7 | 0.00 | 0.06 | 0.06 | 84 | 998.5 |
| 20260507000806 | 77 | 11 | 0.9 | 1.7 | 0.00 | 0.06 | 0.06 | 84 | 998.5 |
| 20260507000604 | 77 | 18 | 0.9 | 1.7 | 0.00 | 0.06 | 0.06 | 84 | 998.3 |
| 20260507000504 | 77 | 13 | 1.7 | 1.7 | 0.00 | 0.06 | 0.06 | 84 | 998.3 |
| 20260507000405 | 77 | 8 | 1.7 | 1.7 | 0.00 | 0.06 | 0.06 | 84 | 998.2 |
| 20260507000306 | 77 | 7 | 0.9 | 1.7 | 0.00 | 0.06 | 0.06 | 84 | 998.5 |
| 20260507000206 | 77 | 7 | 1.7 | 1.7 | 0.00 | 0.06 | 0.06 | 84 | 998.3 |
| 20260506235903 | 77 | 360 | 1.7 | 3.5 | 0.00 | 0.06 | 0.06 | 84 | 998.2 |
| 20260506235804 | 78 | 360 | 1.7 | 3.5 | 0.00 | 0.06 | 0.06 | 84 | 998.3 |
| 20260506235604 | 78 | 360 | 1.7 | 3.5 | 0.00 | 0.06 | 0.06 | 84 | 998.2 |
| 20260506235504 | 77 | 360 | 1.7 | 5.2 | 0.00 | 0.06 | 0.06 | 84 | 998.2 |
| 20260506235306 | 77 | 360 | 2.6 | 5.2 | 0.00 | 0.06 | 0.06 | 84 | 998.0 |
| 20260506235204 | 78 | 3 | 2.6 | 5.2 | 0.00 | 0.06 | 0.06 | 84 | 997.9 |
| 20260506235104 | 77 | 359 | 2.6 | 5.2 | 0.00 | 0.06 | 0.06 | 84 | 998.1 |
| 20260506235004 | 77 | 5 | 1.7 | 5.2 | 0.00 | 0.06 | 0.06 | 84 | 997.9 |
| 20260506234904 | 77 | 8 | 1.7 | 5.2 | 0.00 | 0.06 | 0.06 | 84 | 997.9 |
| 20260506234817 | 77 | 4 | 0.9 | 5.2 | 0.00 | 0.06 | 0.06 | 84 | 997.8 |
| 20260506234805 | 77 | 3 | 0.9 | 5.2 | 0.00 | 0.06 | 0.06 | 84 | 997.8 |
| 20260506234704 | 77 | 1 | 1.7 | 5.2 | 0.00 | 0.06 | 0.06 | 84 | 998.0 |
| 20260506234504 | 77 | 358 | 1.7 | 5.2 | 0.00 | 0.06 | 0.06 | 84 | 997.8 |
| 20260506234416 | 77 | 357 | 1.7 | 5.2 | 0.00 | 0.06 | 0.06 | 84 | 997.7 |
| 20260506234404 | 77 | 358 | 1.7 | 5.2 | 0.00 | 0.06 | 0.06 | 84 | 997.7 |
| 20260506234304 | 77 | 2 | 2.6 | 5.2 | 0.00 | 0.06 | 0.06 | 84 | 997.9 |
| 20260506234213 | 77 | 5 | 2.6 | 3.5 | 0.00 | 0.06 | 0.06 | 84 | 997.8 |
| 20260506233903 | 77 | 1 | 2.6 | 3.5 | 0.00 | 0.06 | 0.06 | 84 | 997.9 |
| 20260506233803 | 77 | 356 | 1.7 | 3.5 | 0.00 | 0.06 | 0.06 | 84 | 997.8 |
| 20260506233605 | 77 | 350 | 1.7 | 3.5 | 0.00 | 0.06 | 0.06 | 84 | 997.7 |
| 20260506233505 | 77 | 353 | 1.7 | 3.5 | 0.00 | 0.06 | 0.06 | 84 | 997.9 |
| 20260506233403 | 77 | 354 | 1.7 | 3.5 | 0.00 | 0.06 | 0.06 | 84 | 997.9 |
| 20260506233204 | 77 | 360 | 1.7 | 3.5 | 0.00 | 0.06 | 0.06 | 84 | 997.9 |
| 20260506233105 | 77 | 360 | 1.7 | 3.5 | 0.00 | 0.06 | 0.06 | 84 | 998.2 |
| 20260506233007 | 77 | 3 | 0.9 | 3.5 | 0.00 | 0.06 | 0.06 | 84 | 998.0 |
| 20260506232904 | 77 | 3 | 1.7 | 3.5 | 0.00 | 0.06 | 0.06 | 84 | 997.7 |
| 20260506232804 | 77 | 3 | 1.7 | 3.5 | 0.00 | 0.06 | 0.06 | 84 | 998.1 |
| 20260506232703 | 77 | 4 | 1.7 | 3.5 | 0.00 | 0.06 | 0.06 | 84 | 998.0 |
| 20260506232605 | 77 | 4 | 1.7 | 1.7 | 0.00 | 0.06 | 0.06 | 84 | 998.0 |
| 20260506232506 | 77 | 350 | 1.7 | 3.5 | 0.00 | 0.06 | 0.06 | 84 | 998.0 |
| 20260506232404 | 78 | 348 | 0.9 | 3.5 | 0.00 | 0.06 | 0.06 | 84 | 998.1 |
| 20260506232306 | 78 | 357 | 0.9 | 3.5 | 0.00 | 0.06 | 0.06 | 84 | 997.9 |
| 20260506232215 | 78 | 357 | 0.0 | 3.5 | 0.00 | 0.06 | 0.06 | 84 | 998.0 |
| 20260506232204 | 78 | 357 | 0.0 | 3.5 | 0.00 | 0.06 | 0.06 | 84 | 997.8 |
| 20260506232104 | 78 | 359 | 0.9 | 3.5 | 0.00 | 0.06 | 0.06 | 84 | 997.8 |
| 20260506231904 | 78 | 6 | 1.7 | 3.5 | 0.00 | 0.06 | 0.06 | 84 | 997.9 |
| 20260506231805 | 78 | 8 | 1.7 | 3.5 | 0.00 | 0.06 | 0.06 | 84 | 997.9 |
| 20260506231704 | 78 | 5 | 1.7 | 3.5 | 0.00 | 0.06 | 0.06 | 84 | 997.9 |
| 20260506231605 | 78 | 8 | 1.7 | 3.5 | 0.00 | 0.06 | 0.06 | 84 | 997.8 |
| 20260506231505 | 78 | 9 | 1.7 | 3.5 | 0.00 | 0.06 | 0.06 | 84 | 998.0 |
| 20260506231403 | 78 | 18 | 1.7 | 3.5 | 0.00 | 0.06 | 0.06 | 84 | 997.9 |
| 20260506231309 | 78 | 23 | 1.7 | 3.5 | 0.00 | 0.06 | 0.06 | 84 | 998.0 |
| 20260506231205 | 78 | 31 | 1.7 | 3.5 | 0.00 | 0.06 | 0.06 | 84 | 997.8 |
| 20260506231104 | 78 | 33 | 1.7 | 3.5 | 0.00 | 0.06 | 0.06 | 84 | 997.9 |
| 20260506231004 | 78 | 33 | 1.7 | 3.5 | 0.00 | 0.06 | 0.06 | 83 | 997.6 |
| 20260506230917 | 78 | 24 | 2.6 | 3.5 | 0.00 | 0.06 | 0.06 | 83 | 997.8 |
| 20260506230903 | 78 | 19 | 2.6 | 3.5 | 0.00 | 0.06 | 0.06 | 83 | 997.8 |
| 20260506230803 | 78 | 19 | 2.6 | 3.5 | 0.00 | 0.06 | 0.06 | 83 | 997.7 |
| 20260506230603 | 78 | 21 | 1.7 | 3.5 | 0.00 | 0.06 | 0.06 | 83 | 997.5 |
| 20260506230503 | 78 | 15 | 2.6 | 3.5 | 0.00 | 0.06 | 0.06 | 83 | 997.7 |
| 20260506230404 | 78 | 23 | 1.7 | 3.5 | 0.00 | 0.06 | 0.06 | 83 | 997.7 |
| 20260506230303 | 78 | 15 | 1.7 | 3.5 | 0.00 | 0.06 | 0.06 | 83 | 997.7 |
| 20260506230205 | 78 | 3 | 0.9 | 3.5 | 0.00 | 0.06 | 0.06 | 83 | 997.9 |
| 20260506230103 | 78 | 5 | 1.7 | 3.5 | 0.00 | 0.06 | 0.06 | 83 | 997.7 |
| 20260506230004 | 78 | 13 | 1.7 | 3.5 | 0.00 | 0.06 | 0.06 | 83 | 997.6 |
| 20260506225905 | 78 | 15 | 1.7 | 3.5 | 0.00 | 0.06 | 0.06 | 83 | 997.8 |
| 20260506225805 | 78 | 13 | 1.7 | 3.5 | 0.00 | 0.06 | 0.06 | 83 | 997.8 |
| 20260506225715 | 78 | 12 | 1.7 | 3.5 | 0.00 | 0.06 | 0.06 | 83 | 997.7 |
| 20260506225704 | 78 | 15 | 1.7 | 3.5 | 0.00 | 0.06 | 0.06 | 83 | 997.7 |
| 20260506225603 | 78 | 14 | 1.7 | 6.1 | 0.00 | 0.06 | 0.06 | 83 | 997.9 |
| 20260506225517 | 78 | 16 | 1.7 | 6.1 | 0.00 | 0.06 | 0.06 | 83 | 997.6 |
| 20260506225416 | 78 | 18 | 1.7 | 6.1 | 0.00 | 0.06 | 0.06 | 83 | 997.7 |
| 20260506225405 | 78 | 18 | 1.7 | 6.1 | 0.00 | 0.06 | 0.06 | 83 | 998.0 |
| 20260506225106 | 78 | 26 | 3.5 | 6.1 | 0.00 | 0.06 | 0.06 | 83 | 997.7 |
| 20260506225003 | 78 | 23 | 1.7 | 3.5 | 0.00 | 0.06 | 0.06 | 83 | 997.7 |
| 20260506224903 | 78 | 21 | 2.6 | 5.2 | 0.00 | 0.06 | 0.06 | 82 | 997.5 |
| 20260506224817 | 78 | 19 | 1.7 | 5.2 | 0.00 | 0.06 | 0.06 | 82 | 997.7 |
| 20260506224803 | 78 | 17 | 1.7 | 5.2 | 0.00 | 0.06 | 0.06 | 82 | 997.7 |
| 20260506224706 | 79 | 11 | 1.7 | 5.2 | 0.00 | 0.06 | 0.06 | 82 | 997.6 |
| 20260506224505 | 79 | 14 | 1.7 | 5.2 | 0.00 | 0.06 | 0.06 | 82 | 997.6 |
| 20260506224417 | 79 | 12 | 1.7 | 5.2 | 0.00 | 0.06 | 0.06 | 82 | 997.6 |
| 20260506224403 | 79 | 10 | 1.7 | 5.2 | 0.00 | 0.06 | 0.06 | 82 | 997.6 |
| 20260506224305 | 79 | 5 | 0.9 | 5.2 | 0.00 | 0.06 | 0.06 | 82 | 997.9 |
| 20260506224108 | 79 | 357 | 1.7 | 5.2 | 0.00 | 0.06 | 0.06 | 82 | 997.9 |
| 20260506224016 | 79 | 360 | 1.7 | 5.2 | 0.00 | 0.06 | 0.06 | 82 | 997.7 |
| 20260506224004 | 79 | 3 | 1.7 | 5.2 | 0.00 | 0.06 | 0.06 | 82 | 997.7 |
| 20260506223905 | 79 | 3 | 3.5 | 5.2 | 0.00 | 0.06 | 0.06 | 81 | 997.8 |
| 20260506223704 | 79 | 11 | 2.6 | 7.0 | 0.00 | 0.06 | 0.06 | 81 | 997.6 |
| 20260506223615 | 79 | 15 | 1.7 | 7.0 | 0.00 | 0.06 | 0.06 | 81 | 997.6 |
| 20260506223604 | 79 | 17 | 1.7 | 7.0 | 0.00 | 0.06 | 0.06 | 81 | 997.6 |
| 20260506223504 | 79 | 12 | 3.5 | 7.0 | 0.00 | 0.06 | 0.06 | 81 | 997.4 |
| 20260506223316 | 79 | 11 | 3.5 | 7.0 | 0.00 | 0.06 | 0.06 | 81 | 997.6 |
| 20260506223304 | 79 | 9 | 3.5 | 7.0 | 0.00 | 0.06 | 0.06 | 81 | 997.6 |
| 20260506223204 | 79 | 7 | 3.5 | 7.0 | 0.00 | 0.06 | 0.06 | 81 | 997.7 |
| 20260506223004 | 79 | 5 | 3.5 | 6.1 | 0.00 | 0.06 | 0.06 | 81 | 997.6 |
| 20260506222905 | 79 | 3 | 2.6 | 5.2 | 0.00 | 0.06 | 0.06 | 81 | 997.7 |
| 20260506222803 | 79 | 8 | 3.5 | 5.2 | 0.00 | 0.06 | 0.06 | 81 | 997.6 |
| 20260506222705 | 79 | 12 | 2.6 | 5.2 | 0.00 | 0.06 | 0.06 | 81 | 997.4 |
| 20260506222603 | 79 | 11 | 2.6 | 5.2 | 0.00 | 0.06 | 0.06 | 81 | 997.6 |
| 20260506222515 | 79 | 8 | 2.6 | 5.2 | 0.00 | 0.06 | 0.06 | 82 | 997.6 |
| 20260506222504 | 79 | 11 | 2.6 | 5.2 | 0.00 | 0.06 | 0.06 | 82 | 997.6 |
| 20260506222404 | 79 | 20 | 1.7 | 3.5 | 0.00 | 0.06 | 0.06 | 82 | 997.6 |
| 20260506222203 | 79 | 19 | 1.7 | 1.7 | 0.00 | 0.06 | 0.06 | 81 | 998.0 |
| 20260506222105 | 79 | 20 | 1.7 | 3.5 | 0.00 | 0.06 | 0.06 | 81 | 997.7 |
| 20260506222004 | 79 | 23 | 1.7 | 3.5 | 0.00 | 0.06 | 0.06 | 81 | 997.8 |
| 20260506221904 | 79 | 25 | 1.7 | 3.5 | 0.00 | 0.06 | 0.06 | 81 | 997.8 |
| 20260506221803 | 79 | 18 | 0.9 | 3.5 | 0.00 | 0.06 | 0.06 | 81 | 997.4 |
| 20260506221703 | 79 | 15 | 1.7 | 3.5 | 0.00 | 0.06 | 0.06 | 81 | 997.6 |
| 20260506221603 | 79 | 4 | 1.7 | 5.2 | 0.00 | 0.06 | 0.06 | 81 | 997.7 |
| 20260506221507 | 79 | 2 | 0.9 | 5.2 | 0.00 | 0.06 | 0.06 | 81 | 997.4 |
| 20260506221404 | 79 | 358 | 1.7 | 5.2 | 0.00 | 0.06 | 0.06 | 81 | 997.5 |
| 20260506221203 | 79 | 355 | 1.7 | 5.2 | 0.00 | 0.06 | 0.06 | 81 | 997.4 |
| 20260506221106 | 79 | 358 | 2.6 | 5.2 | 0.00 | 0.06 | 0.06 | 81 | 997.6 |
| 20260506221005 | 79 | 360 | 1.7 | 5.2 | 0.00 | 0.06 | 0.06 | 81 | 997.1 |
| 20260506220905 | 79 | 2 | 2.6 | 5.2 | 0.00 | 0.06 | 0.06 | 81 | 997.3 |
| 20260506220804 | 80 | 7 | 1.7 | 6.1 | 0.00 | 0.06 | 0.06 | 81 | 997.3 |
| 20260506220704 | 79 | 4 | 1.7 | 6.1 | 0.00 | 0.06 | 0.06 | 81 | 997.2 |
| 20260506220618 | 80 | 4 | 2.6 | 6.1 | 0.00 | 0.06 | 0.06 | 81 | 997.3 |
| 20260506220604 | 80 | 3 | 3.5 | 6.1 | 0.00 | 0.06 | 0.06 | 81 | 997.2 |
| 20260506220503 | 80 | 2 | 2.6 | 6.1 | 0.00 | 0.06 | 0.06 | 81 | 997.2 |
| 20260506220304 | 80 | 357 | 3.5 | 6.1 | 0.00 | 0.06 | 0.06 | 81 | 996.9 |
| 20260506220218 | 80 | 358 | 1.7 | 6.1 | 0.00 | 0.06 | 0.06 | 81 | 997.0 |
| 20260506220204 | 80 | 360 | 3.5 | 6.1 | 0.00 | 0.06 | 0.06 | 81 | 997.2 |
| 20260506220106 | 80 | 6 | 2.6 | 6.1 | 0.00 | 0.06 | 0.06 | 81 | 997.3 |
| 20260506215903 | 80 | 4 | 2.6 | 6.1 | 0.00 | 0.06 | 0.06 | 81 | 997.1 |
| 20260506215805 | 80 | 2 | 2.6 | 6.1 | 0.00 | 0.06 | 0.06 | 81 | 997.0 |
| 20260506215703 | 80 | 1 | 2.6 | 6.1 | 0.00 | 0.06 | 0.06 | 81 | 996.9 |
| 20260506215603 | 80 | 3 | 3.5 | 6.1 | 0.00 | 0.06 | 0.06 | 81 | 996.9 |
| 20260506215503 | 80 | 2 | 1.7 | 6.1 | 0.00 | 0.06 | 0.06 | 81 | 996.9 |
| 20260506215416 | 80 | 5 | 3.5 | 6.1 | 0.00 | 0.06 | 0.06 | 81 | 997.1 |
| 20260506215408 | 80 | 7 | 3.5 | 6.1 | 0.00 | 0.06 | 0.06 | 81 | 997.0 |
| 20260506215306 | 80 | 8 | 4.3 | 6.1 | 0.00 | 0.06 | 0.06 | 81 | 997.0 |
| 20260506215105 | 80 | 3 | 1.7 | 3.5 | 0.00 | 0.06 | 0.06 | 81 | 997.1 |
| 20260506215003 | 80 | 11 | 1.7 | 3.5 | 0.00 | 0.06 | 0.06 | 81 | 996.9 |
| 20260506214905 | 80 | 6 | 1.7 | 6.1 | 0.00 | 0.06 | 0.06 | 81 | 996.9 |
| 20260506214804 | 80 | 17 | 2.6 | 6.1 | 0.00 | 0.06 | 0.06 | 81 | 997.0 |
| 20260506214705 | 80 | 13 | 1.7 | 6.1 | 0.00 | 0.06 | 0.06 | 80 | 997.0 |
| 20260506214604 | 80 | 10 | 1.7 | 6.1 | 0.00 | 0.06 | 0.06 | 80 | 997.1 |
| 20260506214504 | 80 | 5 | 2.6 | 7.8 | 0.00 | 0.06 | 0.06 | 80 | 997.0 |
| 20260506214403 | 80 | 10 | 3.5 | 7.8 | 0.00 | 0.06 | 0.06 | 80 | 997.0 |
| 20260506214304 | 80 | 1 | 2.6 | 7.8 | 0.00 | 0.06 | 0.06 | 80 | 997.0 |
| 20260506214203 | 80 | 359 | 1.7 | 7.8 | 0.00 | 0.06 | 0.06 | 80 | 996.9 |
| 20260506214103 | 80 | 359 | 2.6 | 7.8 | 0.00 | 0.06 | 0.06 | 80 | 996.9 |
| 20260506214004 | 80 | 355 | 3.5 | 7.8 | 0.00 | 0.06 | 0.06 | 80 | 997.1 |
| 20260506213903 | 80 | 349 | 2.6 | 5.2 | 0.00 | 0.06 | 0.06 | 80 | 997.3 |
| 20260506213805 | 80 | 350 | 1.7 | 5.2 | 0.00 | 0.06 | 0.06 | 80 | 997.3 |
| 20260506213605 | 80 | 351 | 1.7 | 5.2 | 0.00 | 0.06 | 0.06 | 79 | 997.4 |
| 20260506213504 | 80 | 354 | 1.7 | 5.2 | 0.00 | 0.06 | 0.06 | 79 | 997.2 |
| 20260506213413 | 80 | 360 | 2.6 | 5.2 | 0.00 | 0.06 | 0.06 | 79 | 997.4 |
| 20260506213404 | 81 | 3 | 2.6 | 5.2 | 0.00 | 0.06 | 0.06 | 79 | 997.2 |
| 20260506213304 | 81 | 9 | 2.6 | 5.2 | 0.00 | 0.06 | 0.06 | 79 | 997.3 |
| 20260506213104 | 81 | 7 | 3.5 | 6.1 | 0.00 | 0.06 | 0.06 | 79 | 997.5 |
| 20260506213005 | 81 | 2 | 1.7 | 6.1 | 0.00 | 0.06 | 0.06 | 79 | 997.3 |
| 20260506212916 | 81 | 357 | 3.5 | 7.0 | 0.00 | 0.06 | 0.06 | 79 | 997.4 |
| 20260506212904 | 81 | 355 | 3.5 | 7.0 | 0.00 | 0.06 | 0.06 | 79 | 997.4 |
| 20260506212804 | 81 | 353 | 1.7 | 7.0 | 0.00 | 0.06 | 0.06 | 79 | 997.3 |
| 20260506212603 | 81 | 349 | 3.5 | 7.0 | 0.00 | 0.06 | 0.06 | 79 | 997.5 |
| 20260506212503 | 81 | 356 | 3.5 | 7.0 | 0.00 | 0.06 | 0.06 | 78 | 997.2 |
| 20260506212403 | 81 | 357 | 3.5 | 7.0 | 0.00 | 0.06 | 0.06 | 78 | 997.4 |
| 20260506212306 | 81 | 357 | 2.6 | 6.1 | 0.00 | 0.06 | 0.06 | 78 | 997.4 |
| 20260506212205 | 81 | 357 | 3.5 | 6.1 | 0.00 | 0.06 | 0.06 | 78 | 997.4 |
| 20260506212103 | 81 | 4 | 2.6 | 6.1 | 0.00 | 0.06 | 0.06 | 78 | 997.4 |
| 20260506212005 | 81 | 1 | 3.5 | 6.1 | 0.00 | 0.06 | 0.06 | 78 | 997.3 |
| 20260506211917 | 81 | 1 | 3.5 | 5.2 | 0.00 | 0.06 | 0.06 | 78 | 997.3 |
| 20260506211903 | 81 | 3 | 3.5 | 5.2 | 0.00 | 0.06 | 0.06 | 78 | 997.3 |
| 20260506211816 | 81 | 1 | 3.5 | 5.2 | 0.00 | 0.06 | 0.06 | 78 | 997.6 |
| 20260506211805 | 81 | 1 | 2.6 | 5.2 | 0.00 | 0.06 | 0.06 | 78 | 997.6 |
| 20260506211715 | 81 | 4 | 1.7 | 5.2 | 0.00 | 0.06 | 0.06 | 78 | 997.5 |
| 20260506211404 | 81 | 7 | 1.7 | 5.2 | 0.00 | 0.06 | 0.06 | 78 | 997.5 |
| 20260506211304 | 81 | 9 | 3.5 | 5.2 | 0.00 | 0.06 | 0.06 | 78 | 997.8 |
| 20260506211203 | 81 | 3 | 3.5 | 5.2 | 0.00 | 0.06 | 0.06 | 77 | 997.6 |
| 20260506211107 | 82 | 1 | 1.7 | 5.2 | 0.00 | 0.06 | 0.06 | 77 | 997.7 |
| 20260506211003 | 82 | 1 | 2.6 | 5.2 | 0.00 | 0.06 | 0.06 | 77 | 997.7 |
| 20260506210904 | 82 | 356 | 1.7 | 5.2 | 0.00 | 0.06 | 0.06 | 77 | 997.9 |
| 20260506210817 | 82 | 355 | 1.7 | 5.2 | 0.00 | 0.06 | 0.06 | 77 | 997.6 |
| 20260506210804 | 82 | 354 | 1.7 | 5.2 | 0.00 | 0.06 | 0.06 | 77 | 997.6 |
| 20260506210715 | 82 | 356 | 2.6 | 6.1 | 0.00 | 0.06 | 0.06 | 77 | 997.8 |
| 20260506210403 | 82 | 351 | 2.6 | 7.0 | 0.00 | 0.06 | 0.06 | 77 | 997.7 |
| 20260506210303 | 82 | 353 | 3.5 | 7.0 | 0.00 | 0.06 | 0.06 | 76 | 997.6 |
| 20260506210203 | 82 | 351 | 3.5 | 7.0 | 0.00 | 0.06 | 0.06 | 76 | 997.6 |
| 20260506210104 | 82 | 353 | 1.7 | 5.2 | 0.00 | 0.06 | 0.06 | 76 | 997.5 |
| 20260506210004 | 82 | 357 | 2.6 | 5.2 | 0.00 | 0.06 | 0.06 | 76 | 997.9 |
| 20260506205904 | 82 | 358 | 1.7 | 6.1 | 0.00 | 0.06 | 0.06 | 76 | 997.6 |
| 20260506205805 | 82 | 1 | 1.7 | 6.1 | 0.00 | 0.06 | 0.06 | 75 | 997.7 |
| 20260506205704 | 83 | 9 | 1.7 | 6.1 | 0.00 | 0.06 | 0.06 | 75 | 997.7 |
| 20260506205604 | 83 | 7 | 1.7 | 6.1 | 0.00 | 0.06 | 0.06 | 75 | 997.7 |
| 20260506205510 | 83 | 6 | 3.5 | 6.1 | 0.00 | 0.06 | 0.06 | 75 | 997.8 |
| 20260506205404 | 83 | 11 | 2.6 | 6.1 | 0.00 | 0.06 | 0.06 | 75 | 997.8 |
| 20260506205306 | 83 | 14 | 3.5 | 6.1 | 0.00 | 0.06 | 0.06 | 75 | 997.8 |
| 20260506205203 | 83 | 9 | 1.7 | 6.1 | 0.00 | 0.06 | 0.06 | 75 | 997.7 |
| 20260506205105 | 83 | 12 | 1.7 | 6.1 | 0.00 | 0.06 | 0.06 | 74 | 997.9 |
| 20260506204804 | 83 | 342 | 1.7 | 6.1 | 0.00 | 0.06 | 0.06 | 74 | 998.1 |
| 20260506204704 | 83 | 345 | 1.7 | 6.1 | 0.00 | 0.06 | 0.06 | 74 | 998.1 |
| 20260506204603 | 83 | 340 | 2.6 | 6.1 | 0.00 | 0.06 | 0.06 | 74 | 998.0 |
| 20260506204505 | 83 | 343 | 3.5 | 6.1 | 0.00 | 0.06 | 0.06 | 74 | 998.1 |
| 20260506204403 | 83 | 350 | 4.3 | 6.1 | 0.00 | 0.06 | 0.06 | 74 | 998.1 |
| 20260506204304 | 83 | 351 | 2.6 | 6.1 | 0.00 | 0.06 | 0.06 | 74 | 998.3 |
| 20260506204207 | 83 | 345 | 2.6 | 6.1 | 0.00 | 0.06 | 0.06 | 74 | 998.4 |
| 20260506204104 | 83 | 349 | 2.6 | 6.1 | 0.00 | 0.06 | 0.06 | 74 | 998.4 |
| 20260506204006 | 83 | 349 | 3.5 | 6.1 | 0.00 | 0.06 | 0.06 | 73 | 998.3 |
| 20260506203904 | 83 | 342 | 1.7 | 7.0 | 0.00 | 0.06 | 0.06 | 73 | 998.2 |
| 20260506203804 | 83 | 347 | 3.5 | 7.8 | 0.00 | 0.06 | 0.06 | 73 | 998.4 |
| 20260506203704 | 84 | 353 | 3.5 | 7.8 | 0.00 | 0.06 | 0.06 | 73 | 998.4 |
| 20260506203603 | 84 | 351 | 3.5 | 7.8 | 0.00 | 0.06 | 0.06 | 73 | 998.2 |
| 20260506203505 | 84 | 350 | 3.5 | 7.8 | 0.00 | 0.06 | 0.06 | 73 | 998.5 |
| 20260506203419 | 84 | 349 | 4.3 | 9.6 | 0.00 | 0.06 | 0.06 | 73 | 998.5 |
| 20260506203403 | 84 | 348 | 5.2 | 9.6 | 0.00 | 0.06 | 0.06 | 73 | 998.3 |
| 20260506203304 | 84 | 339 | 2.6 | 9.6 | 0.00 | 0.06 | 0.06 | 73 | 998.6 |
| 20260506203216 | 84 | 335 | 2.6 | 9.6 | 0.00 | 0.06 | 0.06 | 73 | 998.5 |
| 20260506203104 | 84 | 335 | 4.3 | 9.6 | 0.00 | 0.06 | 0.06 | 73 | 998.4 |
| 20260506202905 | 84 | 340 | 4.3 | 7.8 | 0.00 | 0.06 | 0.06 | 73 | 998.3 |
| 20260506202804 | 84 | 343 | 4.3 | 7.8 | 0.00 | 0.06 | 0.06 | 73 | 998.2 |
| 20260506202706 | 84 | 346 | 3.5 | 7.8 | 0.00 | 0.06 | 0.06 | 73 | 998.4 |
| 20260506202605 | 84 | 343 | 4.3 | 9.6 | 0.00 | 0.06 | 0.06 | 72 | 998.4 |
| 20260506202518 | 84 | 338 | 4.3 | 9.6 | 0.00 | 0.06 | 0.06 | 72 | 998.5 |
| 20260506202404 | 84 | 336 | 4.3 | 9.6 | 0.00 | 0.06 | 0.06 | 72 | 998.5 |
| 20260506202313 | 84 | 339 | 2.6 | 9.6 | 0.00 | 0.06 | 0.06 | 72 | 998.6 |
| 20260506202204 | 84 | 336 | 3.5 | 11.3 | 0.00 | 0.06 | 0.06 | 72 | 998.7 |
| 20260506202005 | 84 | 345 | 2.6 | 11.3 | 0.00 | 0.06 | 0.06 | 72 | 998.7 |
| 20260506201904 | 84 | 354 | 5.2 | 11.3 | 0.00 | 0.06 | 0.06 | 72 | 998.6 |
| 20260506201805 | 84 | 349 | 5.2 | 11.3 | 0.00 | 0.06 | 0.06 | 72 | 998.7 |
| 20260506201705 | 84 | 354 | 7.0 | 11.3 | 0.00 | 0.06 | 0.06 | 72 | 998.6 |
| 20260506201604 | 84 | 345 | 5.2 | 13.0 | 0.00 | 0.06 | 0.06 | 72 | 998.5 |
| 20260506201503 | 84 | 339 | 3.5 | 13.0 | 0.00 | 0.06 | 0.06 | 72 | 998.7 |
| 20260506201403 | 84 | 330 | 6.1 | 13.0 | 0.00 | 0.06 | 0.06 | 72 | 998.3 |
| 20260506201303 | 85 | 338 | 3.5 | 13.0 | 0.00 | 0.06 | 0.06 | 71 | 998.5 |
| 20260506201205 | 85 | 337 | 5.2 | 13.0 | 0.00 | 0.06 | 0.06 | 71 | 998.7 |
| 20260506201104 | 85 | 349 | 7.0 | 13.0 | 0.00 | 0.06 | 0.06 | 71 | 998.6 |
| 20260506201003 | 85 | 354 | 6.1 | 11.3 | 0.00 | 0.06 | 0.06 | 71 | 998.5 |
| 20260506200903 | 85 | 358 | 3.5 | 11.3 | 0.00 | 0.06 | 0.06 | 71 | 998.5 |
| 20260506200804 | 85 | 350 | 2.6 | 11.3 | 0.00 | 0.06 | 0.06 | 71 | 998.1 |
| 20260506200703 | 85 | 344 | 3.5 | 11.3 | 0.00 | 0.06 | 0.06 | 71 | 998.4 |
| 20260506200603 | 85 | 338 | 7.0 | 11.3 | 0.00 | 0.06 | 0.06 | 71 | 998.4 |
| 20260506200505 | 85 | 340 | 5.2 | 9.6 | 0.00 | 0.06 | 0.06 | 71 | 998.3 |
| 20260506200405 | 85 | 341 | 1.7 | 9.6 | 0.00 | 0.06 | 0.06 | 71 | 998.4 |
| 20260506200304 | 85 | 344 | 3.5 | 9.6 | 0.00 | 0.06 | 0.06 | 71 | 998.2 |
| 20260506200214 | 85 | 350 | 3.5 | 9.6 | 0.00 | 0.06 | 0.06 | 71 | 998.5 |
| 20260506200205 | 85 | 354 | 3.5 | 9.6 | 0.00 | 0.06 | 0.06 | 71 | 998.2 |
| 20260506200104 | 85 | 3 | 3.5 | 9.6 | 0.00 | 0.06 | 0.06 | 71 | 998.4 |
| 20260506195904 | 85 | 5 | 2.6 | 9.6 | 0.00 | 0.06 | 0.06 | 71 | 998.2 |
| 20260506195804 | 85 | 8 | 3.5 | 9.6 | 0.00 | 0.06 | 0.06 | 71 | 998.3 |
| 20260506195704 | 85 | 3 | 6.1 | 9.6 | 0.00 | 0.06 | 0.06 | 71 | 998.3 |
| 20260506195605 | 85 | 355 | 3.5 | 11.3 | 0.00 | 0.06 | 0.06 | 71 | 998.3 |
| 20260506195505 | 85 | 360 | 2.6 | 11.3 | 0.00 | 0.06 | 0.06 | 71 | 998.2 |
| 20260506195404 | 85 | 357 | 3.5 | 11.3 | 0.00 | 0.06 | 0.06 | 71 | 998.5 |
| 20260506195316 | 85 | 353 | 3.5 | 11.3 | 0.00 | 0.06 | 0.06 | 71 | 998.3 |
| 20260506195307 | 85 | 355 | 3.5 | 11.3 | 0.00 | 0.06 | 0.06 | 71 | 998.3 |
| 20260506195205 | 85 | 357 | 3.5 | 11.3 | 0.00 | 0.06 | 0.06 | 71 | 998.1 |
| 20260506195004 | 85 | 7 | 5.2 | 11.3 | 0.00 | 0.06 | 0.06 | 71 | 998.4 |
| 20260506194903 | 85 | 14 | 4.3 | 12.2 | 0.00 | 0.06 | 0.06 | 71 | 998.1 |
| 20260506194807 | 85 | 13 | 6.1 | 12.2 | 0.00 | 0.06 | 0.06 | 71 | 998.2 |
| 20260506194704 | 85 | 6 | 4.3 | 12.2 | 0.00 | 0.06 | 0.06 | 71 | 998.2 |
| 20260506194604 | 85 | 1 | 6.1 | 12.2 | 0.00 | 0.06 | 0.06 | 71 | 998.2 |
| 20260506194404 | 85 | 345 | 7.0 | 12.2 | 0.00 | 0.06 | 0.06 | 71 | 998.1 |
| 20260506194304 | 85 | 352 | 7.0 | 12.2 | 0.00 | 0.06 | 0.06 | 71 | 998.3 |
| 20260506194203 | 85 | 356 | 7.0 | 12.2 | 0.00 | 0.06 | 0.06 | 71 | 998.3 |
| 20260506194103 | 85 | 355 | 5.2 | 11.3 | 0.00 | 0.06 | 0.06 | 71 | 998.3 |
| 20260506194004 | 85 | 356 | 7.0 | 9.6 | 0.00 | 0.06 | 0.06 | 71 | 998.2 |
| 20260506193905 | 85 | 360 | 7.0 | 9.6 | 0.00 | 0.06 | 0.06 | 70 | 998.1 |
| 20260506193807 | 85 | 360 | 5.2 | 12.2 | 0.00 | 0.06 | 0.06 | 70 | 998.2 |
| 20260506193705 | 85 | 359 | 4.3 | 12.2 | 0.00 | 0.06 | 0.06 | 70 | 998.1 |
| 20260506193605 | 85 | 355 | 4.3 | 12.2 | 0.00 | 0.06 | 0.06 | 70 | 998.1 |
| 20260506193504 | 85 | 350 | 4.3 | 13.0 | 0.00 | 0.06 | 0.06 | 70 | 998.1 |
| 20260506193404 | 85 | 346 | 4.3 | 13.0 | 0.00 | 0.06 | 0.06 | 71 | 998.1 |
| 20260506193305 | 85 | 342 | 5.2 | 13.0 | 0.00 | 0.06 | 0.06 | 71 | 998.2 |
| 20260506193205 | 85 | 343 | 5.2 | 13.0 | 0.00 | 0.06 | 0.06 | 71 | 998.1 |
| 20260506193104 | 85 | 347 | 5.2 | 13.0 | 0.00 | 0.06 | 0.06 | 71 | 998.1 |
| 20260506193004 | 85 | 354 | 6.1 | 13.9 | 0.00 | 0.06 | 0.06 | 70 | 998.2 |
| 20260506192905 | 85 | 1 | 7.0 | 13.9 | 0.00 | 0.06 | 0.06 | 70 | 998.2 |
| 20260506192803 | 85 | 1 | 7.0 | 13.9 | 0.00 | 0.06 | 0.06 | 70 | 998.1 |
| 20260506192703 | 85 | 359 | 5.2 | 13.9 | 0.00 | 0.06 | 0.06 | 70 | 998.2 |
| 20260506192604 | 85 | 359 | 7.0 | 13.9 | 0.00 | 0.06 | 0.06 | 70 | 998.4 |
| 20260506192416 | 85 | 354 | 2.6 | 12.2 | 0.00 | 0.06 | 0.06 | 70 | 998.5 |
| 20260506192403 | 85 | 353 | 2.6 | 12.2 | 0.00 | 0.06 | 0.06 | 70 | 998.5 |
| 20260506192305 | 85 | 356 | 6.1 | 12.2 | 0.00 | 0.06 | 0.06 | 70 | 998.4 |
| 20260506192104 | 85 | 348 | 4.3 | 15.6 | 0.00 | 0.06 | 0.06 | 70 | 998.4 |
| 20260506192007 | 85 | 348 | 6.1 | 15.6 | 0.00 | 0.06 | 0.06 | 70 | 998.3 |